Time,TemperatureF,DewpointF,PressureIn,WindDirection,WindDirectionDegrees,WindSpeedMPH,WindSpeedGustMPH,Humidity,HourlyPrecipIn,Conditions,Clouds,dailyrainin,SolarRadiationWatts/m^2,SoftwareType,DateUTC
2013-08-24 00:00:00,65.1,53.5,30.09,ENE,64,0.0,1.0,66,0.00,,,0.00,520,WeatherCatV1.14B232,2013-08-24 04:00:00,
2013-08-24 00:01:00,65.1,53.5,30.09,ENE,64,0.0,1.0,66,0.00,,,0.00,520,WeatherCatV1.14B232,2013-08-24 04:01:00,
2013-08-24 00:06:00,65.0,52.9,30.09,ENE,63,1.0,1.0,65,0.00,,,0.00,520,WeatherCatV1.14B232,2013-08-24 04:06:00,
2013-08-24 00:07:00,65.0,53.4,30.09,ENE,64,0.0,1.0,66,0.00,,,0.00,520,WeatherCatV1.14B232,2013-08-24 04:07:00,
2013-08-24 00:11:00,65.0,53.4,30.09,ENE,63,0.0,0.0,66,0.00,,,0.00,520,WeatherCatV1.14B232,2013-08-24 04:11:00,
2013-08-24 00:12:00,64.9,53.3,30.09,ENE,64,1.0,1.0,66,0.00,,,0.00,520,WeatherCatV1.14B232,2013-08-24 04:12:00,
2013-08-24 00:16:00,64.9,53.7,30.09,ENE,64,0.0,0.0,67,0.00,,,0.00,520,WeatherCatV1.14B232,2013-08-24 04:16:00,
2013-08-24 00:17:00,64.8,53.2,30.10,ENE,63,0.0,1.0,66,0.00,,,0.00,520,WeatherCatV1.14B232,2013-08-24 04:17:00,
2013-08-24 00:21:00,64.7,53.5,30.10,ENE,64,0.0,0.0,67,0.00,,,0.00,520,WeatherCatV1.14B232,2013-08-24 04:21:00,
2013-08-24 00:22:00,64.7,53.5,30.10,ENE,63,0.0,0.0,67,0.00,,,0.00,520,WeatherCatV1.14B232,2013-08-24 04:22:00,
2013-08-24 00:26:00,64.6,53.4,30.10,ENE,64,0.0,0.0,67,0.00,,,0.00,520,WeatherCatV1.14B232,2013-08-24 04:26:00,
2013-08-24 00:27:00,64.6,53.4,30.10,ENE,64,0.0,0.0,67,0.00,,,0.00,520,WeatherCatV1.14B232,2013-08-24 04:27:00,
2013-08-24 00:32:00,64.3,53.5,30.10,ENE,64,0.0,0.0,68,0.00,,,0.00,520,WeatherCatV1.14B232,2013-08-24 04:32:00,
2013-08-24 00:37:00,64.1,53.3,30.10,ENE,64,0.0,0.0,68,0.00,,,0.00,520,WeatherCatV1.14B232,2013-08-24 04:37:00,
2013-08-24 00:38:00,64.1,53.3,30.11,ENE,64,0.0,1.0,68,0.00,,,0.00,520,WeatherCatV1.14B232,2013-08-24 04:38:00,
2013-08-24 00:42:00,64.0,53.2,30.11,ENE,64,0.0,1.0,68,0.00,,,0.00,520,WeatherCatV1.14B232,2013-08-24 04:42:00,
2013-08-24 00:43:00,63.9,53.5,30.11,ENE,64,0.0,1.0,69,0.00,,,0.00,520,WeatherCatV1.14B232,2013-08-24 04:43:00,
2013-08-24 00:47:00,63.8,53.0,30.11,ENE,63,0.0,1.0,68,0.00,,,0.00,520,WeatherCatV1.14B232,2013-08-24 04:47:00,
2013-08-24 00:48:00,63.8,52.6,30.11,ENE,63,0.0,0.0,67,0.00,,,0.00,520,WeatherCatV1.14B232,2013-08-24 04:48:00,
2013-08-24 00:52:00,63.8,53.0,30.11,ENE,63,0.0,1.0,68,0.00,,,0.00,520,WeatherCatV1.14B232,2013-08-24 04:52:00,
2013-08-24 00:53:00,63.8,53.0,30.11,ENE,63,0.0,0.0,68,0.00,,,0.00,520,WeatherCatV1.14B232,2013-08-24 04:53:00,
2013-08-24 00:54:00,63.8,53.0,30.11,ENE,63,0.0,1.0,68,0.00,,,0.00,520,WeatherCatV1.14B232,2013-08-24 04:54:00,
2013-08-24 00:57:00,63.8,53.0,30.11,ENE,64,0.0,1.0,68,0.00,,,0.00,520,WeatherCatV1.14B232,2013-08-24 04:57:00,
2013-08-24 00:58:00,63.8,53.0,30.12,ENE,64,0.0,0.0,68,0.00,,,0.00,520,WeatherCatV1.14B232,2013-08-24 04:58:00,
2013-08-24 00:59:00,63.8,53.0,30.12,ENE,63,0.0,0.0,68,0.00,,,0.00,520,WeatherCatV1.14B232,2013-08-24 04:59:00,
2013-08-24 01:02:00,63.7,52.9,30.12,ENE,63,0.0,0.0,68,0.00,,,0.00,520,WeatherCatV1.14B232,2013-08-24 05:02:00,
2013-08-24 01:03:00,63.7,53.3,30.12,ENE,64,1.0,1.0,69,0.00,,,0.00,520,WeatherCatV1.14B232,2013-08-24 05:03:00,
2013-08-24 01:04:00,63.7,52.9,30.12,ENE,63,0.0,1.0,68,0.00,,,0.00,520,WeatherCatV1.14B232,2013-08-24 05:04:00,
2013-08-24 01:08:00,63.5,52.7,30.12,ENE,63,0.0,0.0,68,0.00,,,0.00,520,WeatherCatV1.14B232,2013-08-24 05:08:00,
2013-08-24 01:09:00,63.5,52.7,30.12,ENE,64,0.0,0.0,68,0.00,,,0.00,520,WeatherCatV1.14B232,2013-08-24 05:09:00,
2013-08-24 01:13:00,63.4,52.6,30.12,ENE,63,1.0,1.0,68,0.00,,,0.00,520,WeatherCatV1.14B232,2013-08-24 05:13:00,
2013-08-24 01:14:00,63.4,52.6,30.12,ENE,64,0.0,1.0,68,0.00,,,0.00,520,WeatherCatV1.14B232,2013-08-24 05:14:00,
2013-08-24 01:18:00,63.2,52.9,30.12,ENE,64,0.0,1.0,69,0.00,,,0.00,520,WeatherCatV1.14B232,2013-08-24 05:18:00,
2013-08-24 01:19:00,63.2,52.9,30.12,ENE,64,1.0,1.0,69,0.00,,,0.00,520,WeatherCatV1.14B232,2013-08-24 05:19:00,
2013-08-24 01:24:00,63.1,52.8,30.12,ENE,63,0.0,1.0,69,0.00,,,0.00,520,WeatherCatV1.14B232,2013-08-24 05:24:00,
2013-08-24 01:25:00,63.1,52.8,30.12,ENE,63,0.0,0.0,69,0.00,,,0.00,520,WeatherCatV1.14B232,2013-08-24 05:25:00,
2013-08-24 01:29:00,63.0,53.1,30.12,ENE,63,0.0,0.0,70,0.00,,,0.00,520,WeatherCatV1.14B232,2013-08-24 05:29:00,
2013-08-24 01:30:00,62.9,53.3,30.12,ENE,63,0.0,0.0,71,0.00,,,0.00,520,WeatherCatV1.14B232,2013-08-24 05:30:00,
2013-08-24 01:34:00,62.7,53.2,30.12,ENE,63,0.0,0.0,71,0.00,,,0.00,520,WeatherCatV1.14B232,2013-08-24 05:34:00,
2013-08-24 01:35:00,62.7,53.2,30.12,ENE,64,0.0,0.0,71,0.00,,,0.00,520,WeatherCatV1.14B232,2013-08-24 05:35:00,
2013-08-24 01:36:00,62.6,53.1,30.12,ENE,64,0.0,0.0,71,0.00,,,0.00,520,WeatherCatV1.14B232,2013-08-24 05:36:00,
2013-08-24 01:39:00,62.5,53.3,30.12,ENE,64,0.0,0.0,72,0.00,,,0.00,520,WeatherCatV1.14B232,2013-08-24 05:39:00,
2013-08-24 01:40:00,62.4,52.9,30.12,ENE,64,0.0,1.0,71,0.00,,,0.00,520,WeatherCatV1.14B232,2013-08-24 05:40:00,
2013-08-24 01:41:00,62.4,52.9,30.12,ENE,63,0.0,1.0,71,0.00,,,0.00,520,WeatherCatV1.14B232,2013-08-24 05:41:00,
2013-08-24 01:44:00,62.3,52.8,30.12,ENE,64,0.0,0.0,71,0.00,,,0.00,520,WeatherCatV1.14B232,2013-08-24 05:44:00,
2013-08-24 01:45:00,62.2,53.1,30.12,ENE,64,0.0,0.0,72,0.00,,,0.00,520,WeatherCatV1.14B232,2013-08-24 05:45:00,
2013-08-24 01:46:00,62.2,53.1,30.12,ENE,63,0.0,0.0,72,0.00,,,0.00,520,WeatherCatV1.14B232,2013-08-24 05:46:00,
2013-08-24 01:49:00,62.0,52.9,30.12,ENE,63,0.0,1.0,72,0.00,,,0.00,520,WeatherCatV1.14B232,2013-08-24 05:49:00,
2013-08-24 01:50:00,62.0,52.9,30.12,ENE,63,0.0,0.0,72,0.00,,,0.00,520,WeatherCatV1.14B232,2013-08-24 05:50:00,
2013-08-24 01:51:00,62.0,52.9,30.13,ENE,63,0.0,0.0,72,0.00,,,0.00,520,WeatherCatV1.14B232,2013-08-24 05:51:00,
2013-08-24 01:54:00,61.8,52.7,30.13,ENE,63,0.0,1.0,72,0.00,,,0.00,520,WeatherCatV1.14B232,2013-08-24 05:54:00,
2013-08-24 01:55:00,61.8,52.7,30.13,ENE,63,0.0,1.0,72,0.00,,,0.00,520,WeatherCatV1.14B232,2013-08-24 05:55:00,
2013-08-24 01:56:00,61.8,52.7,30.13,ENE,63,0.0,0.0,72,0.00,,,0.00,520,WeatherCatV1.14B232,2013-08-24 05:56:00,
2013-08-24 01:59:00,61.7,53.0,30.13,ENE,63,0.0,0.0,73,0.00,,,0.00,520,WeatherCatV1.14B232,2013-08-24 05:59:00,
2013-08-24 02:00:00,61.7,53.3,30.13,ENE,64,0.0,0.0,74,0.00,,,0.00,520,WeatherCatV1.14B232,2013-08-24 06:00:00,
2013-08-24 02:01:00,61.6,52.9,30.13,ENE,64,0.0,1.0,73,0.00,,,0.00,520,WeatherCatV1.14B232,2013-08-24 06:01:00,
2013-08-24 02:05:00,61.4,53.0,30.14,ENE,63,0.0,0.0,74,0.00,,,0.00,520,WeatherCatV1.14B232,2013-08-24 06:05:00,
2013-08-24 02:06:00,61.4,53.0,30.14,ENE,63,0.0,0.0,74,0.00,,,0.00,520,WeatherCatV1.14B232,2013-08-24 06:06:00,
2013-08-24 02:07:00,61.3,52.9,30.14,ENE,64,0.0,0.0,74,0.00,,,0.00,520,WeatherCatV1.14B232,2013-08-24 06:07:00,
2013-08-24 02:10:00,61.2,53.2,30.14,ENE,63,0.0,0.0,75,0.00,,,0.00,520,WeatherCatV1.14B232,2013-08-24 06:10:00,
2013-08-24 02:11:00,61.1,53.1,30.14,ENE,63,0.0,0.0,75,0.00,,,0.00,520,WeatherCatV1.14B232,2013-08-24 06:11:00,
2013-08-24 02:12:00,61.1,53.1,30.14,ENE,63,0.0,0.0,75,0.00,,,0.00,520,WeatherCatV1.14B232,2013-08-24 06:12:00,
2013-08-24 02:15:00,60.9,53.3,30.14,ENE,63,0.0,0.0,76,0.00,,,0.00,520,WeatherCatV1.14B232,2013-08-24 06:15:00,
2013-08-24 02:16:00,60.9,53.3,30.14,ENE,64,0.0,0.0,76,0.00,,,0.00,520,WeatherCatV1.14B232,2013-08-24 06:16:00,
2013-08-24 02:17:00,60.8,53.2,30.14,ENE,63,0.0,0.0,76,0.00,,,0.00,520,WeatherCatV1.14B232,2013-08-24 06:17:00,
2013-08-24 02:20:00,60.6,53.0,30.14,ENE,64,0.0,0.0,76,0.00,,,0.00,520,WeatherCatV1.14B232,2013-08-24 06:20:00,
2013-08-24 02:21:00,60.6,53.0,30.14,ENE,63,0.0,0.0,76,0.00,,,0.00,520,WeatherCatV1.14B232,2013-08-24 06:21:00,
2013-08-24 02:22:00,60.5,52.9,30.14,ENE,63,0.0,0.0,76,0.00,,,0.00,520,WeatherCatV1.14B232,2013-08-24 06:22:00,
2013-08-24 02:25:00,60.3,52.7,30.14,ENE,63,0.0,0.0,76,0.00,,,0.00,520,WeatherCatV1.14B232,2013-08-24 06:25:00,
2013-08-24 02:26:00,60.3,53.1,30.14,ENE,63,0.0,0.0,77,0.00,,,0.00,520,WeatherCatV1.14B232,2013-08-24 06:26:00,
2013-08-24 02:27:00,60.3,53.1,30.14,ENE,63,0.0,0.0,77,0.00,,,0.00,520,WeatherCatV1.14B232,2013-08-24 06:27:00,
2013-08-24 02:28:00,60.2,53.0,30.14,ENE,64,0.0,0.0,77,0.00,,,0.00,520,WeatherCatV1.14B232,2013-08-24 06:28:00,
2013-08-24 02:30:00,60.1,52.9,30.14,ENE,63,0.0,0.0,77,0.00,,,0.00,520,WeatherCatV1.14B232,2013-08-24 06:30:00,
2013-08-24 02:31:00,60.1,52.9,30.14,ENE,63,0.0,0.0,77,0.00,,,0.00,520,WeatherCatV1.14B232,2013-08-24 06:31:00,
2013-08-24 02:32:00,60.1,53.2,30.14,ENE,63,0.0,0.0,78,0.00,,,0.00,520,WeatherCatV1.14B232,2013-08-24 06:32:00,
2013-08-24 02:33:00,60.0,52.8,30.14,ENE,64,0.0,0.0,77,0.00,,,0.00,520,WeatherCatV1.14B232,2013-08-24 06:33:00,
2013-08-24 02:35:00,59.9,52.7,30.15,ENE,63,0.0,0.0,77,0.00,,,0.00,520,WeatherCatV1.14B232,2013-08-24 06:35:00,
2013-08-24 02:36:00,59.9,52.7,30.14,ENE,63,0.0,0.0,77,0.00,,,0.00,520,WeatherCatV1.14B232,2013-08-24 06:36:00,
2013-08-24 02:37:00,59.8,52.9,30.15,ENE,64,0.0,0.0,78,0.00,,,0.00,520,WeatherCatV1.14B232,2013-08-24 06:37:00,
2013-08-24 02:38:00,59.8,52.6,30.14,ENE,63,0.0,0.0,77,0.00,,,0.00,520,WeatherCatV1.14B232,2013-08-24 06:38:00,
2013-08-24 02:41:00,59.7,52.5,30.15,ENE,63,0.0,0.0,77,0.00,,,0.00,520,WeatherCatV1.14B232,2013-08-24 06:41:00,
2013-08-24 02:42:00,59.6,52.4,30.15,ENE,63,0.0,0.0,77,0.00,,,0.00,520,WeatherCatV1.14B232,2013-08-24 06:42:00,
2013-08-24 02:43:00,59.6,52.4,30.15,ENE,64,0.0,0.0,77,0.00,,,0.00,520,WeatherCatV1.14B232,2013-08-24 06:43:00,
2013-08-24 02:46:00,59.5,52.3,30.15,ENE,64,0.0,0.0,77,0.00,,,0.00,520,WeatherCatV1.14B232,2013-08-24 06:46:00,
2013-08-24 02:47:00,59.4,52.5,30.15,ENE,64,0.0,0.0,78,0.00,,,0.00,520,WeatherCatV1.14B232,2013-08-24 06:47:00,
2013-08-24 02:49:00,59.3,52.4,30.15,ENE,64,0.0,0.0,78,0.00,,,0.00,520,WeatherCatV1.14B232,2013-08-24 06:49:00,
2013-08-24 02:51:00,59.3,52.4,30.15,ENE,64,0.0,0.0,78,0.00,,,0.00,520,WeatherCatV1.14B232,2013-08-24 06:51:00,
2013-08-24 02:52:00,59.2,52.3,30.15,ENE,63,0.0,0.0,78,0.00,,,0.00,520,WeatherCatV1.14B232,2013-08-24 06:52:00,
2013-08-24 02:53:00,59.2,52.3,30.15,ENE,64,0.0,0.0,78,0.00,,,0.00,520,WeatherCatV1.14B232,2013-08-24 06:53:00,
2013-08-24 02:54:00,59.2,52.3,30.15,ENE,64,0.0,0.0,78,0.00,,,0.00,520,WeatherCatV1.14B232,2013-08-24 06:54:00,
2013-08-24 02:56:00,59.2,52.3,30.15,ENE,64,0.0,0.0,78,0.00,,,0.00,520,WeatherCatV1.14B232,2013-08-24 06:56:00,
2013-08-24 02:58:00,59.1,52.2,30.15,ENE,63,0.0,0.0,78,0.00,,,0.00,520,WeatherCatV1.14B232,2013-08-24 06:58:00,
2013-08-24 02:59:00,59.1,52.2,30.16,ENE,64,0.0,0.0,78,0.00,,,0.00,520,WeatherCatV1.14B232,2013-08-24 06:59:00,
2013-08-24 03:01:00,59.1,52.2,30.16,ENE,63,0.0,0.0,78,0.00,,,0.00,520,WeatherCatV1.14B232,2013-08-24 07:01:00,
2013-08-24 03:03:00,59.0,52.1,30.16,ENE,63,0.0,0.0,78,0.00,,,0.00,520,WeatherCatV1.14B232,2013-08-24 07:03:00,
2013-08-24 03:04:00,59.0,52.1,30.16,ENE,63,0.0,0.0,78,0.00,,,0.00,520,WeatherCatV1.14B232,2013-08-24 07:04:00,
2013-08-24 03:06:00,58.9,52.0,30.16,ENE,63,0.0,0.0,78,0.00,,,0.00,520,WeatherCatV1.14B232,2013-08-24 07:06:00,
2013-08-24 03:08:00,58.9,52.4,30.16,ENE,63,0.0,0.0,79,0.00,,,0.00,520,WeatherCatV1.14B232,2013-08-24 07:08:00,
2013-08-24 03:09:00,58.9,52.4,30.16,ENE,63,0.0,0.0,79,0.00,,,0.00,520,WeatherCatV1.14B232,2013-08-24 07:09:00,
2013-08-24 03:11:00,58.8,52.3,30.16,ENE,63,0.0,0.0,79,0.00,,,0.00,520,WeatherCatV1.14B232,2013-08-24 07:11:00,
2013-08-24 03:13:00,58.8,52.3,30.16,ENE,64,0.0,0.0,79,0.00,,,0.00,520,WeatherCatV1.14B232,2013-08-24 07:13:00,
2013-08-24 03:15:00,58.8,52.3,30.16,ENE,63,0.0,0.0,79,0.00,,,0.00,520,WeatherCatV1.14B232,2013-08-24 07:15:00,
2013-08-24 03:16:00,58.8,52.3,30.16,ENE,63,0.0,0.0,79,0.00,,,0.00,520,WeatherCatV1.14B232,2013-08-24 07:16:00,
2013-08-24 03:18:00,58.8,52.3,30.16,ENE,63,0.0,0.0,79,0.00,,,0.00,520,WeatherCatV1.14B232,2013-08-24 07:18:00,
2013-08-24 03:20:00,58.8,52.3,30.16,ENE,63,0.0,0.0,79,0.00,,,0.00,520,WeatherCatV1.14B232,2013-08-24 07:20:00,
2013-08-24 03:21:00,58.8,52.6,30.16,ENE,64,0.0,0.0,80,0.00,,,0.00,520,WeatherCatV1.14B232,2013-08-24 07:21:00,
2013-08-24 03:23:00,58.8,52.3,30.16,ENE,63,0.0,0.0,79,0.00,,,0.00,520,WeatherCatV1.14B232,2013-08-24 07:23:00,
2013-08-24 03:25:00,58.9,53.1,30.16,ENE,64,0.0,0.0,81,0.00,,,0.00,520,WeatherCatV1.14B232,2013-08-24 07:25:00,
2013-08-24 03:27:00,58.9,52.7,30.16,ENE,64,0.0,0.0,80,0.00,,,0.00,520,WeatherCatV1.14B232,2013-08-24 07:27:00,
2013-08-24 03:28:00,58.9,52.7,30.17,ENE,63,0.0,0.0,80,0.00,,,0.00,520,WeatherCatV1.14B232,2013-08-24 07:28:00,
2013-08-24 03:31:00,58.9,52.7,30.17,ENE,63,0.0,0.0,80,0.00,,,0.00,520,WeatherCatV1.14B232,2013-08-24 07:31:00,
2013-08-24 03:32:00,58.9,52.7,30.17,ENE,63,0.0,0.0,80,0.00,,,0.00,520,WeatherCatV1.14B232,2013-08-24 07:32:00,
2013-08-24 03:33:00,58.9,52.7,30.17,ENE,64,0.0,0.0,80,0.00,,,0.00,520,WeatherCatV1.14B232,2013-08-24 07:33:00,
2013-08-24 03:36:00,58.9,52.7,30.17,ENE,64,0.0,0.0,80,0.00,,,0.00,520,WeatherCatV1.14B232,2013-08-24 07:36:00,
2013-08-24 03:37:00,58.9,52.7,30.17,ENE,63,0.0,0.0,80,0.00,,,0.00,520,WeatherCatV1.14B232,2013-08-24 07:37:00,
2013-08-24 03:38:00,58.9,52.7,30.17,ENE,63,0.0,0.0,80,0.00,,,0.00,520,WeatherCatV1.14B232,2013-08-24 07:38:00,
2013-08-24 03:41:00,58.9,52.7,30.17,ENE,64,0.0,0.0,80,0.00,,,0.00,520,WeatherCatV1.14B232,2013-08-24 07:41:00,
2013-08-24 03:43:00,58.9,52.4,30.17,ENE,64,0.0,0.0,79,0.00,,,0.00,520,WeatherCatV1.14B232,2013-08-24 07:43:00,
2013-08-24 03:46:00,58.9,52.7,30.17,ENE,64,0.0,0.0,80,0.00,,,0.00,520,WeatherCatV1.14B232,2013-08-24 07:46:00,
2013-08-24 03:48:00,58.9,52.4,30.17,ENE,64,0.0,0.0,79,0.00,,,0.00,520,WeatherCatV1.14B232,2013-08-24 07:48:00,
2013-08-24 03:49:00,58.9,52.7,30.17,ENE,64,0.0,0.0,80,0.00,,,0.00,520,WeatherCatV1.14B232,2013-08-24 07:49:00,
2013-08-24 03:51:00,59.0,52.5,30.17,ENE,63,0.0,0.0,79,0.00,,,0.00,520,WeatherCatV1.14B232,2013-08-24 07:51:00,
2013-08-24 03:53:00,58.9,52.4,30.17,ENE,64,0.0,0.0,79,0.00,,,0.00,520,WeatherCatV1.14B232,2013-08-24 07:53:00,
2013-08-24 03:54:00,58.9,52.4,30.17,ENE,63,0.0,0.0,79,0.00,,,0.00,520,WeatherCatV1.14B232,2013-08-24 07:54:00,
2013-08-24 03:57:00,58.9,52.7,30.17,ENE,63,0.0,0.0,80,0.00,,,0.00,520,WeatherCatV1.14B232,2013-08-24 07:57:00,
2013-08-24 03:58:00,58.9,52.4,30.17,ENE,64,0.0,0.0,79,0.00,,,0.00,520,WeatherCatV1.14B232,2013-08-24 07:58:00,
2013-08-24 03:59:00,58.9,52.7,30.17,ENE,64,0.0,0.0,80,0.00,,,0.00,520,WeatherCatV1.14B232,2013-08-24 07:59:00,
2013-08-24 04:02:00,58.8,52.6,30.17,ENE,63,0.0,0.0,80,0.00,,,0.00,520,WeatherCatV1.14B232,2013-08-24 08:02:00,
2013-08-24 04:03:00,58.7,52.5,30.17,ENE,63,0.0,0.0,80,0.00,,,0.00,520,WeatherCatV1.14B232,2013-08-24 08:03:00,
2013-08-24 04:04:00,58.7,52.5,30.17,ENE,64,0.0,0.0,80,0.00,,,0.00,520,WeatherCatV1.14B232,2013-08-24 08:04:00,
2013-08-24 04:07:00,58.6,52.8,30.17,ENE,64,0.0,0.0,81,0.00,,,0.00,520,WeatherCatV1.14B232,2013-08-24 08:07:00,
2013-08-24 04:08:00,58.6,52.4,30.17,ENE,63,0.0,0.0,80,0.00,,,0.00,520,WeatherCatV1.14B232,2013-08-24 08:08:00,
2013-08-24 04:09:00,58.5,52.3,30.18,ENE,64,0.0,0.0,80,0.00,,,0.00,520,WeatherCatV1.14B232,2013-08-24 08:09:00,
2013-08-24 04:10:00,58.5,52.3,30.18,ENE,63,0.0,0.0,80,0.00,,,0.00,520,WeatherCatV1.14B232,2013-08-24 08:10:00,
2013-08-24 04:12:00,58.5,52.3,30.18,ENE,64,0.0,0.0,80,0.00,,,0.00,520,WeatherCatV1.14B232,2013-08-24 08:12:00,
2013-08-24 04:14:00,58.4,52.3,30.18,ENE,64,0.0,0.0,80,0.00,,,0.00,520,WeatherCatV1.14B232,2013-08-24 08:14:00,
2013-08-24 04:15:00,58.4,52.3,30.18,ENE,63,0.0,0.0,80,0.00,,,0.00,520,WeatherCatV1.14B232,2013-08-24 08:15:00,
2013-08-24 04:17:00,58.3,52.2,30.18,ENE,64,0.0,0.0,80,0.00,,,0.00,520,WeatherCatV1.14B232,2013-08-24 08:17:00,
2013-08-24 04:19:00,58.3,52.2,30.18,ENE,63,0.0,0.0,80,0.00,,,0.00,520,WeatherCatV1.14B232,2013-08-24 08:19:00,
2013-08-24 04:20:00,58.3,52.2,30.18,ENE,64,0.0,0.0,80,0.00,,,0.00,520,WeatherCatV1.14B232,2013-08-24 08:20:00,
2013-08-24 04:22:00,58.2,52.1,30.18,ENE,64,0.0,0.0,80,0.00,,,0.00,520,WeatherCatV1.14B232,2013-08-24 08:22:00,
2013-08-24 04:24:00,58.2,52.1,30.18,ENE,63,0.0,0.0,80,0.00,,,0.00,520,WeatherCatV1.14B232,2013-08-24 08:24:00,
2013-08-24 04:25:00,58.3,52.2,30.18,ENE,63,0.0,0.0,80,0.00,,,0.00,520,WeatherCatV1.14B232,2013-08-24 08:25:00,
2013-08-24 04:27:00,58.3,52.2,30.18,ENE,64,0.0,0.0,80,0.00,,,0.00,520,WeatherCatV1.14B232,2013-08-24 08:27:00,
2013-08-24 04:30:00,58.3,52.2,30.18,ENE,64,0.0,0.0,80,0.00,,,0.00,520,WeatherCatV1.14B232,2013-08-24 08:30:00,
2013-08-24 04:32:00,58.3,52.2,30.18,ENE,63,0.0,0.0,80,0.00,,,0.00,520,WeatherCatV1.14B232,2013-08-24 08:32:00,
2013-08-24 04:35:00,58.3,52.2,30.18,ENE,64,0.0,0.0,80,0.00,,,0.00,520,WeatherCatV1.14B232,2013-08-24 08:35:00,
2013-08-24 04:37:00,58.3,52.2,30.18,ENE,63,0.0,1.0,80,0.00,,,0.00,520,WeatherCatV1.14B232,2013-08-24 08:37:00,
2013-08-24 04:40:00,58.3,52.2,30.18,ENE,63,0.0,1.0,80,0.00,,,0.00,520,WeatherCatV1.14B232,2013-08-24 08:40:00,
2013-08-24 04:43:00,58.4,51.9,30.18,ENE,63,0.0,0.0,79,0.00,,,0.00,520,WeatherCatV1.14B232,2013-08-24 08:43:00,
2013-08-24 04:45:00,58.4,51.9,30.18,ENE,64,0.0,0.0,79,0.00,,,0.00,520,WeatherCatV1.14B232,2013-08-24 08:45:00,
2013-08-24 04:46:00,58.4,51.9,30.18,ENE,63,0.0,0.0,79,0.00,,,0.00,520,WeatherCatV1.14B232,2013-08-24 08:46:00,
2013-08-24 04:48:00,58.4,51.9,30.18,ENE,63,0.0,0.0,79,0.00,,,0.00,520,WeatherCatV1.14B232,2013-08-24 08:48:00,
2013-08-24 04:50:00,58.4,51.9,30.18,ENE,63,0.0,0.0,79,0.00,,,0.00,520,WeatherCatV1.14B232,2013-08-24 08:50:00,
2013-08-24 04:51:00,58.4,52.3,30.18,ENE,64,0.0,0.0,80,0.00,,,0.00,520,WeatherCatV1.14B232,2013-08-24 08:51:00,
2013-08-24 04:53:00,58.4,51.9,30.18,ENE,63,0.0,0.0,79,0.00,,,0.00,520,WeatherCatV1.14B232,2013-08-24 08:53:00,
2013-08-24 04:55:00,58.3,52.2,30.18,ENE,64,0.0,0.0,80,0.00,,,0.00,520,WeatherCatV1.14B232,2013-08-24 08:55:00,
2013-08-24 04:56:00,58.3,52.2,30.18,ENE,63,0.0,1.0,80,0.00,,,0.00,520,WeatherCatV1.14B232,2013-08-24 08:56:00,
2013-08-24 04:57:00,58.3,52.2,30.18,ENE,63,0.0,1.0,80,0.00,,,0.00,520,WeatherCatV1.14B232,2013-08-24 08:57:00,
2013-08-24 04:58:00,58.2,52.1,30.18,ENE,63,0.0,0.0,80,0.00,,,0.00,520,WeatherCatV1.14B232,2013-08-24 08:58:00,
2013-08-24 05:00:00,58.2,52.1,30.18,ENE,63,0.0,1.0,80,0.00,,,0.00,520,WeatherCatV1.14B232,2013-08-24 09:00:00,
2013-08-24 05:01:00,58.2,52.1,30.18,ENE,63,0.0,0.0,80,0.00,,,0.00,520,WeatherCatV1.14B232,2013-08-24 09:01:00,
2013-08-24 05:02:00,58.1,52.0,30.18,ENE,63,0.0,0.0,80,0.00,,,0.00,520,WeatherCatV1.14B232,2013-08-24 09:02:00,
2013-08-24 05:03:00,58.1,52.0,30.18,ENE,63,0.0,0.0,80,0.00,,,0.00,520,WeatherCatV1.14B232,2013-08-24 09:03:00,
2013-08-24 05:05:00,58.1,51.6,30.18,ENE,64,0.0,0.0,79,0.00,,,0.00,520,WeatherCatV1.14B232,2013-08-24 09:05:00,
2013-08-24 05:06:00,58.0,51.5,30.19,ENE,64,0.0,0.0,79,0.00,,,0.00,520,WeatherCatV1.14B232,2013-08-24 09:06:00,
2013-08-24 05:07:00,58.0,51.5,30.18,ENE,64,0.0,0.0,79,0.00,,,0.00,520,WeatherCatV1.14B232,2013-08-24 09:07:00,
2013-08-24 05:08:00,58.0,51.9,30.19,ENE,63,0.0,0.0,80,0.00,,,0.00,520,WeatherCatV1.14B232,2013-08-24 09:08:00,
2013-08-24 05:10:00,58.0,51.5,30.18,ENE,64,0.0,1.0,79,0.00,,,0.00,520,WeatherCatV1.14B232,2013-08-24 09:10:00,
2013-08-24 05:11:00,58.0,51.5,30.18,ENE,63,0.0,1.0,79,0.00,,,0.00,520,WeatherCatV1.14B232,2013-08-24 09:11:00,
2013-08-24 05:12:00,58.0,51.5,30.18,ENE,64,0.0,1.0,79,0.00,,,0.00,520,WeatherCatV1.14B232,2013-08-24 09:12:00,
2013-08-24 05:13:00,58.1,51.6,30.19,ENE,64,0.0,1.0,79,0.00,,,0.00,520,WeatherCatV1.14B232,2013-08-24 09:13:00,
2013-08-24 05:15:00,58.1,51.6,30.19,ENE,63,0.0,1.0,79,0.00,,,0.00,520,WeatherCatV1.14B232,2013-08-24 09:15:00,
2013-08-24 05:16:00,58.2,51.7,30.19,ENE,63,0.0,0.0,79,0.00,,,0.00,520,WeatherCatV1.14B232,2013-08-24 09:16:00,
2013-08-24 05:17:00,58.2,51.7,30.19,ENE,63,1.0,1.0,79,0.00,,,0.00,520,WeatherCatV1.14B232,2013-08-24 09:17:00,
2013-08-24 05:18:00,58.2,51.4,30.19,ENE,63,0.0,1.0,78,0.00,,,0.00,520,WeatherCatV1.14B232,2013-08-24 09:18:00,
2013-08-24 05:20:00,58.3,51.5,30.19,ENE,64,0.0,1.0,78,0.00,,,0.00,520,WeatherCatV1.14B232,2013-08-24 09:20:00,
2013-08-24 05:21:00,58.3,51.5,30.19,ENE,63,0.0,1.0,78,0.00,,,0.00,520,WeatherCatV1.14B232,2013-08-24 09:21:00,
2013-08-24 05:22:00,58.3,51.5,30.19,ENE,63,0.0,1.0,78,0.00,,,0.00,520,WeatherCatV1.14B232,2013-08-24 09:22:00,
2013-08-24 05:23:00,58.4,51.6,30.19,ENE,64,0.0,1.0,78,0.00,,,0.00,520,WeatherCatV1.14B232,2013-08-24 09:23:00,
2013-08-24 05:25:00,58.4,51.6,30.19,ENE,64,0.0,1.0,78,0.00,,,0.00,520,WeatherCatV1.14B232,2013-08-24 09:25:00,
2013-08-24 05:26:00,58.3,51.5,30.19,ENE,64,0.0,0.0,78,0.00,,,0.00,520,WeatherCatV1.14B232,2013-08-24 09:26:00,
2013-08-24 05:27:00,58.3,51.5,30.19,ENE,63,0.0,1.0,78,0.00,,,0.00,520,WeatherCatV1.14B232,2013-08-24 09:27:00,
2013-08-24 05:28:00,58.3,51.5,30.19,ENE,63,0.0,1.0,78,0.00,,,0.00,520,WeatherCatV1.14B232,2013-08-24 09:28:00,
2013-08-24 05:29:00,58.3,51.5,30.19,ENE,63,0.0,0.0,78,0.00,,,0.00,520,WeatherCatV1.14B232,2013-08-24 09:29:00,
2013-08-24 05:31:00,58.3,51.8,30.19,ENE,64,0.0,1.0,79,0.00,,,0.00,520,WeatherCatV1.14B232,2013-08-24 09:31:00,
2013-08-24 05:32:00,58.3,51.5,30.19,ENE,63,0.0,1.0,78,0.00,,,0.00,520,WeatherCatV1.14B232,2013-08-24 09:32:00,
2013-08-24 05:33:00,58.4,51.6,30.19,ENE,63,0.0,1.0,78,0.00,,,0.00,520,WeatherCatV1.14B232,2013-08-24 09:33:00,
2013-08-24 05:34:00,58.4,51.9,30.19,ENE,64,1.0,1.0,79,0.00,,,0.00,520,WeatherCatV1.14B232,2013-08-24 09:34:00,
2013-08-24 05:36:00,58.4,51.6,30.19,ENE,63,0.0,1.0,78,0.00,,,0.00,520,WeatherCatV1.14B232,2013-08-24 09:36:00,
2013-08-24 05:37:00,58.4,51.6,30.20,ENE,63,0.0,1.0,78,0.00,,,0.00,520,WeatherCatV1.14B232,2013-08-24 09:37:00,
2013-08-24 05:38:00,58.4,51.9,30.20,ENE,64,0.0,1.0,79,0.00,,,0.00,520,WeatherCatV1.14B232,2013-08-24 09:38:00,
2013-08-24 05:39:00,58.4,51.9,30.20,ENE,63,0.0,0.0,79,0.00,,,0.00,520,WeatherCatV1.14B232,2013-08-24 09:39:00,
2013-08-24 05:41:00,58.3,51.8,30.20,ENE,63,0.0,1.0,79,0.00,,,0.00,520,WeatherCatV1.14B232,2013-08-24 09:41:00,
2013-08-24 05:42:00,58.3,51.8,30.19,ENE,64,0.0,1.0,79,0.00,,,0.00,520,WeatherCatV1.14B232,2013-08-24 09:42:00,
2013-08-24 05:43:00,58.2,52.1,30.20,ENE,64,0.0,0.0,80,0.00,,,0.00,520,WeatherCatV1.14B232,2013-08-24 09:43:00,
2013-08-24 05:44:00,58.1,52.0,30.20,ENE,63,0.0,0.0,80,0.00,,,0.00,520,WeatherCatV1.14B232,2013-08-24 09:44:00,
2013-08-24 05:46:00,58.0,51.5,30.20,ENE,64,0.0,0.0,79,0.00,,,0.00,520,WeatherCatV1.14B232,2013-08-24 09:46:00,
2013-08-24 05:47:00,58.0,51.9,30.20,ENE,63,1.0,1.0,80,0.00,,,0.00,520,WeatherCatV1.14B232,2013-08-24 09:47:00,
2013-08-24 05:48:00,58.0,51.9,30.20,ENE,64,0.0,1.0,80,0.00,,,0.00,520,WeatherCatV1.14B232,2013-08-24 09:48:00,
2013-08-24 05:49:00,57.9,51.8,30.20,ENE,64,0.0,1.0,80,0.00,,,0.00,520,WeatherCatV1.14B232,2013-08-24 09:49:00,
2013-08-24 05:52:00,57.8,51.7,30.20,ENE,64,0.0,1.0,80,0.00,,,0.00,520,WeatherCatV1.14B232,2013-08-24 09:52:00,
2013-08-24 05:53:00,57.8,51.7,30.20,ENE,64,0.0,1.0,80,0.00,,,0.00,520,WeatherCatV1.14B232,2013-08-24 09:53:00,
2013-08-24 05:54:00,57.7,51.6,30.20,ENE,64,1.0,1.0,80,0.00,,,0.00,520,WeatherCatV1.14B232,2013-08-24 09:54:00,
2013-08-24 05:57:00,57.6,51.5,30.20,ENE,63,0.0,1.0,80,0.00,,,0.00,520,WeatherCatV1.14B232,2013-08-24 09:57:00,
2013-08-24 05:58:00,57.6,51.5,30.20,ENE,64,0.0,1.0,80,0.00,,,0.00,520,WeatherCatV1.14B232,2013-08-24 09:58:00,
2013-08-24 05:59:00,57.5,51.7,30.20,ENE,63,1.0,1.0,81,0.00,,,0.00,520,WeatherCatV1.14B232,2013-08-24 09:59:00,
2013-08-24 06:02:00,57.5,51.7,30.21,ENE,63,0.0,0.0,81,0.00,,,0.00,520,WeatherCatV1.14B232,2013-08-24 10:02:00,
2013-08-24 06:03:00,57.4,51.6,30.21,ENE,63,0.0,1.0,81,0.00,,,0.00,520,WeatherCatV1.14B232,2013-08-24 10:03:00,
2013-08-24 06:04:00,57.4,51.3,30.21,ENE,63,0.0,1.0,80,0.00,,,0.00,520,WeatherCatV1.14B232,2013-08-24 10:04:00,
2013-08-24 06:05:00,57.4,51.6,30.21,ENE,63,0.0,1.0,81,0.00,,,0.00,520,WeatherCatV1.14B232,2013-08-24 10:05:00,
2013-08-24 06:07:00,57.3,51.2,30.21,ENE,64,0.0,1.0,80,0.00,,,0.00,520,WeatherCatV1.14B232,2013-08-24 10:07:00,
2013-08-24 06:08:00,57.4,51.3,30.21,ENE,63,0.0,1.0,80,0.00,,,0.00,520,WeatherCatV1.14B232,2013-08-24 10:08:00,
2013-08-24 06:09:00,57.4,51.3,30.21,ENE,63,0.0,1.0,80,0.00,,,0.00,520,WeatherCatV1.14B232,2013-08-24 10:09:00,
2013-08-24 06:10:00,57.4,51.3,30.21,ENE,63,0.0,1.0,80,0.00,,,0.00,520,WeatherCatV1.14B232,2013-08-24 10:10:00,
2013-08-24 06:12:00,57.5,51.4,30.21,ENE,64,0.0,0.0,80,0.00,,,0.00,520,WeatherCatV1.14B232,2013-08-24 10:12:00,
2013-08-24 06:13:00,57.5,51.4,30.21,ENE,64,1.0,1.0,80,0.00,,,0.00,520,WeatherCatV1.14B232,2013-08-24 10:13:00,
2013-08-24 06:14:00,57.5,51.4,30.21,ENE,63,0.0,1.0,80,0.00,,,0.00,520,WeatherCatV1.14B232,2013-08-24 10:14:00,
2013-08-24 06:15:00,57.5,51.4,30.21,ENE,63,0.0,1.0,80,0.00,,,0.00,520,WeatherCatV1.14B232,2013-08-24 10:15:00,
2013-08-24 06:17:00,57.5,51.4,30.21,ENE,63,0.0,1.0,80,0.00,,,0.00,520,WeatherCatV1.14B232,2013-08-24 10:17:00,
2013-08-24 06:18:00,57.4,51.3,30.21,ENE,63,0.0,1.0,80,0.00,,,0.00,520,WeatherCatV1.14B232,2013-08-24 10:18:00,
2013-08-24 06:19:00,57.4,51.3,30.21,ENE,64,0.0,1.0,80,0.00,,,0.00,520,WeatherCatV1.14B232,2013-08-24 10:19:00,
2013-08-24 06:20:00,57.4,51.6,30.22,ENE,64,0.0,0.0,81,0.00,,,0.00,520,WeatherCatV1.14B232,2013-08-24 10:20:00,
2013-08-24 06:22:00,57.3,51.2,30.22,ENE,64,0.0,0.0,80,0.00,,,0.00,520,WeatherCatV1.14B232,2013-08-24 10:22:00,
2013-08-24 06:23:00,57.3,51.5,30.22,ENE,64,0.0,1.0,81,0.00,,,0.00,520,WeatherCatV1.14B232,2013-08-24 10:23:00,
2013-08-24 06:24:00,57.2,51.4,30.22,ENE,63,0.0,1.0,81,0.00,,,0.00,520,WeatherCatV1.14B232,2013-08-24 10:24:00,
2013-08-24 06:25:00,57.2,51.1,30.22,ENE,63,0.0,0.0,80,0.00,,,0.00,520,WeatherCatV1.14B232,2013-08-24 10:25:00,
2013-08-24 06:27:00,57.2,51.1,30.22,ENE,63,0.0,1.0,80,0.00,,,0.00,520,WeatherCatV1.14B232,2013-08-24 10:27:00,
2013-08-24 06:28:00,57.2,51.1,30.22,ENE,63,1.0,1.0,80,0.00,,,0.00,520,WeatherCatV1.14B232,2013-08-24 10:28:00,
2013-08-24 06:29:00,57.2,51.1,30.22,ENE,64,1.0,1.0,80,0.00,,,0.00,520,WeatherCatV1.14B232,2013-08-24 10:29:00,
2013-08-24 06:30:00,57.2,51.1,30.22,ENE,63,0.0,1.0,80,0.00,,,0.00,520,WeatherCatV1.14B232,2013-08-24 10:30:00,
2013-08-24 06:33:00,57.3,51.2,30.22,ENE,63,1.0,1.0,80,0.00,,,0.00,520,WeatherCatV1.14B232,2013-08-24 10:33:00,
2013-08-24 06:34:00,57.4,50.9,30.22,ENE,63,0.0,1.0,79,0.00,,,0.00,520,WeatherCatV1.14B232,2013-08-24 10:34:00,
2013-08-24 06:36:00,57.5,51.4,30.22,ENE,63,0.0,1.0,80,0.00,,,0.00,520,WeatherCatV1.14B232,2013-08-24 10:36:00,
2013-08-24 06:38:00,57.5,51.0,30.22,ENE,64,0.0,1.0,79,0.00,,,0.00,520,WeatherCatV1.14B232,2013-08-24 10:38:00,
2013-08-24 06:39:00,57.6,51.1,30.22,ENE,64,0.0,1.0,79,0.00,,,0.00,520,WeatherCatV1.14B232,2013-08-24 10:39:00,
2013-08-24 06:40:00,57.6,51.1,30.22,ENE,63,1.0,1.0,79,0.00,,,0.00,520,WeatherCatV1.14B232,2013-08-24 10:40:00,
2013-08-24 06:41:00,57.7,51.2,30.22,ENE,64,0.0,1.0,79,0.00,,,0.00,520,WeatherCatV1.14B232,2013-08-24 10:41:00,
2013-08-24 06:43:00,57.8,51.0,30.22,ENE,63,0.0,1.0,78,0.00,,,0.00,520,WeatherCatV1.14B232,2013-08-24 10:43:00,
2013-08-24 06:44:00,57.8,51.3,30.22,ENE,64,0.0,1.0,79,0.00,,,0.00,520,WeatherCatV1.14B232,2013-08-24 10:44:00,
2013-08-24 06:45:00,57.8,51.3,30.22,ENE,63,1.0,1.0,79,0.00,,,0.00,520,WeatherCatV1.14B232,2013-08-24 10:45:00,
2013-08-24 06:46:00,57.9,51.4,30.23,ENE,63,0.0,1.0,79,0.00,,,0.00,520,WeatherCatV1.14B232,2013-08-24 10:46:00,
2013-08-24 06:48:00,57.9,51.4,30.23,ENE,63,0.0,2.0,79,0.00,,,0.00,520,WeatherCatV1.14B232,2013-08-24 10:48:00,
2013-08-24 06:49:00,57.9,51.4,30.23,ENE,63,0.0,2.0,79,0.00,,,0.00,520,WeatherCatV1.14B232,2013-08-24 10:49:00,
2013-08-24 06:50:00,57.9,51.4,30.23,ENE,64,0.0,1.0,79,0.00,,,0.00,520,WeatherCatV1.14B232,2013-08-24 10:50:00,
2013-08-24 06:51:00,57.9,51.4,30.23,ENE,64,0.0,1.0,79,0.00,,,0.00,520,WeatherCatV1.14B232,2013-08-24 10:51:00,
2013-08-24 06:53:00,58.0,51.5,30.23,ENE,64,0.0,0.0,79,0.00,,,0.00,520,WeatherCatV1.14B232,2013-08-24 10:53:00,
2013-08-24 06:54:00,58.0,51.5,30.23,ENE,63,0.0,0.0,79,0.00,,,0.00,520,WeatherCatV1.14B232,2013-08-24 10:54:00,
2013-08-24 06:55:00,57.9,51.8,30.23,ENE,64,0.0,0.0,80,0.00,,,0.00,520,WeatherCatV1.14B232,2013-08-24 10:55:00,
2013-08-24 06:56:00,57.9,51.8,30.23,ENE,63,0.0,0.0,80,0.00,,,0.00,520,WeatherCatV1.14B232,2013-08-24 10:56:00,
2013-08-24 06:58:00,57.9,51.4,30.23,ENE,63,0.0,1.0,79,0.00,,,0.00,520,WeatherCatV1.14B232,2013-08-24 10:58:00,
2013-08-24 06:59:00,57.9,51.4,30.23,ENE,63,0.0,0.0,79,0.00,,,0.00,520,WeatherCatV1.14B232,2013-08-24 10:59:00,
2013-08-24 07:00:00,57.8,51.3,30.23,ENE,64,0.0,0.0,79,0.00,,,0.00,520,WeatherCatV1.14B232,2013-08-24 11:00:00,
2013-08-24 07:01:00,57.9,51.4,30.23,ENE,63,1.0,1.0,79,0.00,,,0.00,520,WeatherCatV1.14B232,2013-08-24 11:01:00,
2013-08-24 07:03:00,57.9,51.4,30.23,ENE,63,1.0,1.0,79,0.00,,,0.00,520,WeatherCatV1.14B232,2013-08-24 11:03:00,
2013-08-24 07:04:00,57.9,51.4,30.23,ENE,63,0.0,1.0,79,0.00,,,0.00,520,WeatherCatV1.14B232,2013-08-24 11:04:00,
2013-08-24 07:05:00,57.9,51.4,30.23,ENE,63,0.0,1.0,79,0.00,,,0.00,520,WeatherCatV1.14B232,2013-08-24 11:05:00,
2013-08-24 07:06:00,57.9,51.4,30.23,ENE,64,0.0,0.0,79,0.00,,,0.00,520,WeatherCatV1.14B232,2013-08-24 11:06:00,
2013-08-24 07:08:00,58.0,51.2,30.23,ENE,64,0.0,1.0,78,0.00,,,0.00,520,WeatherCatV1.14B232,2013-08-24 11:08:00,
2013-08-24 07:09:00,58.0,51.5,30.23,ENE,63,1.0,1.0,79,0.00,,,0.00,520,WeatherCatV1.14B232,2013-08-24 11:09:00,
2013-08-24 07:10:00,58.0,51.5,30.23,ENE,64,1.0,1.0,79,0.00,,,0.00,520,WeatherCatV1.14B232,2013-08-24 11:10:00,
2013-08-24 07:11:00,58.0,51.5,30.23,ENE,63,1.0,1.0,79,0.00,,,0.00,520,WeatherCatV1.14B232,2013-08-24 11:11:00,
2013-08-24 07:12:00,58.0,51.2,30.23,ENE,64,0.0,1.0,78,0.00,,,0.00,520,WeatherCatV1.14B232,2013-08-24 11:12:00,
2013-08-24 07:13:00,58.1,51.3,30.24,ENE,63,0.0,1.0,78,0.00,,,0.00,520,WeatherCatV1.14B232,2013-08-24 11:13:00,
2013-08-24 07:14:00,58.1,51.3,30.24,ENE,63,0.0,1.0,78,0.00,,,0.00,520,WeatherCatV1.14B232,2013-08-24 11:14:00,
2013-08-24 07:15:00,58.1,51.6,30.24,ENE,64,0.0,1.0,79,0.00,,,0.00,520,WeatherCatV1.14B232,2013-08-24 11:15:00,
2013-08-24 07:16:00,58.2,51.7,30.24,ENE,63,0.0,0.0,79,0.00,,,0.00,520,WeatherCatV1.14B232,2013-08-24 11:16:00,
2013-08-24 07:17:00,58.2,51.4,30.24,ENE,63,0.0,1.0,78,0.00,,,0.00,520,WeatherCatV1.14B232,2013-08-24 11:17:00,
2013-08-24 07:18:00,58.2,51.4,30.24,ENE,63,0.0,1.0,78,0.00,,,0.00,520,WeatherCatV1.14B232,2013-08-24 11:18:00,
2013-08-24 07:20:00,58.2,51.4,30.24,ENE,64,0.0,1.0,78,0.00,,,0.00,520,WeatherCatV1.14B232,2013-08-24 11:20:00,
2013-08-24 07:21:00,58.3,51.5,30.24,ENE,64,0.0,1.0,78,0.00,,,0.00,520,WeatherCatV1.14B232,2013-08-24 11:21:00,
2013-08-24 07:22:00,58.3,51.5,30.24,ENE,63,0.0,1.0,78,0.00,,,0.00,520,WeatherCatV1.14B232,2013-08-24 11:22:00,
2013-08-24 07:23:00,58.4,51.6,30.24,ENE,63,0.0,0.0,78,0.00,,,0.00,520,WeatherCatV1.14B232,2013-08-24 11:23:00,
2013-08-24 07:25:00,58.4,51.6,30.24,ENE,63,0.0,1.0,78,0.00,,,0.00,520,WeatherCatV1.14B232,2013-08-24 11:25:00,
2013-08-24 07:26:00,58.4,51.6,30.24,ENE,63,0.0,1.0,78,0.00,,,0.00,520,WeatherCatV1.14B232,2013-08-24 11:26:00,
2013-08-24 07:28:00,58.5,51.7,30.24,ENE,63,0.0,0.0,78,0.00,,,0.00,520,WeatherCatV1.14B232,2013-08-24 11:28:00,
2013-08-24 07:30:00,58.6,51.8,30.24,ENE,64,0.0,1.0,78,0.00,,,0.00,520,WeatherCatV1.14B232,2013-08-24 11:30:00,
2013-08-24 07:31:00,58.6,52.1,30.24,ENE,64,0.0,1.0,79,0.00,,,0.00,520,WeatherCatV1.14B232,2013-08-24 11:31:00,
2013-08-24 07:33:00,58.8,52.0,30.24,ENE,64,0.0,1.0,78,0.00,,,0.00,520,WeatherCatV1.14B232,2013-08-24 11:33:00,
2013-08-24 07:35:00,59.1,52.2,30.24,ENE,63,0.0,1.0,78,0.00,,,0.00,520,WeatherCatV1.14B232,2013-08-24 11:35:00,
2013-08-24 07:36:00,59.2,52.0,30.24,ENE,63,0.0,1.0,77,0.00,,,0.00,520,WeatherCatV1.14B232,2013-08-24 11:36:00,
2013-08-24 07:38:00,59.5,51.9,30.24,ENE,63,0.0,2.0,76,0.00,,,0.00,520,WeatherCatV1.14B232,2013-08-24 11:38:00,
2013-08-24 07:40:00,59.8,52.2,30.24,ENE,64,0.0,1.0,76,0.00,,,0.00,520,WeatherCatV1.14B232,2013-08-24 11:40:00,
2013-08-24 07:41:00,59.9,52.3,30.24,ENE,64,0.0,1.0,76,0.00,,,0.00,520,WeatherCatV1.14B232,2013-08-24 11:41:00,
2013-08-24 07:42:00,60.1,52.9,30.24,ENE,63,0.0,1.0,77,0.00,,,0.00,520,WeatherCatV1.14B232,2013-08-24 11:42:00,
2013-08-24 07:43:00,60.2,52.2,30.24,ENE,63,0.0,0.0,75,0.00,,,0.00,520,WeatherCatV1.14B232,2013-08-24 11:43:00,
2013-08-24 07:44:00,60.3,52.3,30.24,ENE,63,0.0,1.0,75,0.00,,,0.00,520,WeatherCatV1.14B232,2013-08-24 11:44:00,
2013-08-24 07:45:00,60.5,52.9,30.24,ENE,63,0.0,1.0,76,0.00,,,0.00,520,WeatherCatV1.14B232,2013-08-24 11:45:00,
2013-08-24 07:46:00,60.6,52.6,30.24,ENE,64,0.0,1.0,75,0.00,,,0.00,520,WeatherCatV1.14B232,2013-08-24 11:46:00,
2013-08-24 07:47:00,60.7,53.1,30.24,ENE,63,0.0,1.0,76,0.00,,,0.00,520,WeatherCatV1.14B232,2013-08-24 11:47:00,
2013-08-24 07:48:00,60.9,53.3,30.24,ENE,63,0.0,1.0,76,0.00,,,0.00,520,WeatherCatV1.14B232,2013-08-24 11:48:00,
2013-08-24 07:49:00,61.1,53.1,30.24,ENE,64,0.0,1.0,75,0.00,,,0.00,520,WeatherCatV1.14B232,2013-08-24 11:49:00,
2013-08-24 07:51:00,61.4,53.0,30.24,ENE,63,1.0,1.0,74,0.00,,,0.00,520,WeatherCatV1.14B232,2013-08-24 11:51:00,
2013-08-24 07:52:00,61.6,52.9,30.25,ENE,64,0.0,1.0,73,0.00,,,0.00,520,WeatherCatV1.14B232,2013-08-24 11:52:00,
2013-08-24 07:53:00,62.0,53.6,30.25,ENE,63,3.0,3.0,74,0.00,,,0.00,520,WeatherCatV1.14B232,2013-08-24 11:53:00,
2013-08-24 07:54:00,62.1,53.3,30.25,ENE,63,2.0,4.0,73,0.00,,,0.00,520,WeatherCatV1.14B232,2013-08-24 11:54:00,
2013-08-24 07:56:00,62.4,52.9,30.25,ENE,63,0.0,4.0,71,0.00,,,0.00,520,WeatherCatV1.14B232,2013-08-24 11:56:00,
2013-08-24 07:57:00,62.6,53.4,30.25,ENE,63,1.0,1.0,72,0.00,,,0.00,520,WeatherCatV1.14B232,2013-08-24 11:57:00,
2013-08-24 07:58:00,63.1,54.3,30.25,ENE,63,1.0,1.0,73,0.00,,,0.00,520,WeatherCatV1.14B232,2013-08-24 11:58:00,
2013-08-24 07:59:00,63.2,53.6,30.25,ENE,63,0.0,2.0,71,0.00,,,0.00,520,WeatherCatV1.14B232,2013-08-24 11:59:00,
2013-08-24 08:01:00,63.6,54.0,30.25,ENE,63,1.0,2.0,71,0.00,,,0.00,520,WeatherCatV1.14B232,2013-08-24 12:01:00,
2013-08-24 08:02:00,63.7,54.1,30.25,ENE,63,0.0,2.0,71,0.00,,,0.00,520,WeatherCatV1.14B232,2013-08-24 12:02:00,
2013-08-24 08:04:00,64.0,54.0,30.25,ENE,64,0.0,0.0,70,0.00,,,0.00,520,WeatherCatV1.14B232,2013-08-24 12:04:00,
2013-08-24 08:06:00,64.7,54.3,30.26,ENE,64,0.0,1.0,69,0.00,,,0.00,520,WeatherCatV1.14B232,2013-08-24 12:06:00,
2013-08-24 08:07:00,64.7,54.3,30.26,ENE,63,0.0,1.0,69,0.00,,,0.00,520,WeatherCatV1.14B232,2013-08-24 12:07:00,
2013-08-24 08:09:00,65.1,54.7,30.26,ENE,64,0.0,1.0,69,0.00,,,0.00,520,WeatherCatV1.14B232,2013-08-24 12:09:00,
2013-08-24 08:11:00,65.4,53.7,30.26,ENE,64,0.0,1.0,66,0.00,,,0.00,520,WeatherCatV1.14B232,2013-08-24 12:11:00,
2013-08-24 08:12:00,65.5,53.8,30.26,ENE,64,0.0,2.0,66,0.00,,,0.00,520,WeatherCatV1.14B232,2013-08-24 12:12:00,
2013-08-24 08:13:00,65.5,54.2,30.26,ENE,63,0.0,2.0,67,0.00,,,0.00,520,WeatherCatV1.14B232,2013-08-24 12:13:00,
2013-08-24 08:14:00,65.6,53.9,30.26,ENE,64,0.0,2.0,66,0.00,,,0.00,520,WeatherCatV1.14B232,2013-08-24 12:14:00,
2013-08-24 08:15:00,65.6,53.9,30.26,ENE,64,1.0,1.0,66,0.00,,,0.00,520,WeatherCatV1.14B232,2013-08-24 12:15:00,
2013-08-24 08:17:00,65.6,53.9,30.26,ENE,63,1.0,1.0,66,0.00,,,0.00,520,WeatherCatV1.14B232,2013-08-24 12:17:00,
2013-08-24 08:18:00,65.7,54.4,30.26,ENE,64,0.0,1.0,67,0.00,,,0.00,520,WeatherCatV1.14B232,2013-08-24 12:18:00,
2013-08-24 08:19:00,65.9,54.6,30.26,ENE,64,1.0,1.0,67,0.00,,,0.00,520,WeatherCatV1.14B232,2013-08-24 12:19:00,
2013-08-24 08:20:00,66.0,54.3,30.26,ENE,64,0.0,0.0,66,0.00,,,0.00,520,WeatherCatV1.14B232,2013-08-24 12:20:00,
2013-08-24 08:22:00,66.2,54.5,30.26,ENE,64,0.0,2.0,66,0.00,,,0.00,520,WeatherCatV1.14B232,2013-08-24 12:22:00,
2013-08-24 08:23:00,66.3,55.0,30.26,ENE,64,1.0,2.0,67,0.00,,,0.00,520,WeatherCatV1.14B232,2013-08-24 12:23:00,
2013-08-24 08:24:00,66.4,54.3,30.26,ENE,64,0.0,1.0,65,0.00,,,0.00,520,WeatherCatV1.14B232,2013-08-24 12:24:00,
2013-08-24 08:25:00,66.5,54.4,30.26,ENE,64,1.0,1.0,65,0.00,,,0.00,520,WeatherCatV1.14B232,2013-08-24 12:25:00,
2013-08-24 08:27:00,66.6,54.0,30.26,ENE,64,0.0,2.0,64,0.00,,,0.00,520,WeatherCatV1.14B232,2013-08-24 12:27:00,
2013-08-24 08:28:00,66.6,54.0,30.26,ENE,64,0.0,2.0,64,0.00,,,0.00,520,WeatherCatV1.14B232,2013-08-24 12:28:00,
2013-08-24 08:30:00,67.0,55.3,30.26,ENE,64,0.0,0.0,66,0.00,,,0.00,520,WeatherCatV1.14B232,2013-08-24 12:30:00,
2013-08-24 08:31:00,67.2,55.0,30.26,ENE,64,2.0,2.0,65,0.00,,,0.00,520,WeatherCatV1.14B232,2013-08-24 12:31:00,
2013-08-24 08:32:00,67.4,54.8,30.26,ENE,64,1.0,2.0,64,0.00,,,0.00,520,WeatherCatV1.14B232,2013-08-24 12:32:00,
2013-08-24 08:33:00,67.4,53.9,30.26,ENE,64,0.0,2.0,62,0.00,,,0.00,520,WeatherCatV1.14B232,2013-08-24 12:33:00,
2013-08-24 08:35:00,67.5,54.9,30.27,ENE,64,0.0,1.0,64,0.00,,,0.00,520,WeatherCatV1.14B232,2013-08-24 12:35:00,
2013-08-24 08:36:00,67.6,54.1,30.27,ENE,64,0.0,1.0,62,0.00,,,0.00,520,WeatherCatV1.14B232,2013-08-24 12:36:00,
2013-08-24 08:38:00,67.8,54.3,30.27,ENE,64,0.0,3.0,62,0.00,,,0.00,520,WeatherCatV1.14B232,2013-08-24 12:38:00,
2013-08-24 08:40:00,68.0,54.5,30.27,ENE,64,0.0,3.0,62,0.00,,,0.00,520,WeatherCatV1.14B232,2013-08-24 12:40:00,
2013-08-24 08:41:00,68.0,54.5,30.27,ENE,64,0.0,3.0,62,0.00,,,0.00,520,WeatherCatV1.14B232,2013-08-24 12:41:00,
2013-08-24 08:43:00,68.0,54.5,30.27,ENE,63,1.0,5.0,62,0.00,,,0.00,520,WeatherCatV1.14B232,2013-08-24 12:43:00,
2013-08-24 08:46:00,68.0,54.5,30.27,ENE,64,1.0,1.0,62,0.00,,,0.00,520,WeatherCatV1.14B232,2013-08-24 12:46:00,
2013-08-24 08:48:00,68.2,55.5,30.27,ENE,64,0.0,0.0,64,0.00,,,0.00,520,WeatherCatV1.14B232,2013-08-24 12:48:00,
2013-08-24 08:51:00,68.9,55.8,30.27,ENE,64,0.0,1.0,63,0.00,,,0.00,520,WeatherCatV1.14B232,2013-08-24 12:51:00,
2013-08-24 08:53:00,69.3,56.2,30.27,ENE,64,0.0,1.0,63,0.00,,,0.00,520,WeatherCatV1.14B232,2013-08-24 12:53:00,
2013-08-24 08:54:00,69.4,56.7,30.27,ENE,64,0.0,1.0,64,0.00,,,0.00,520,WeatherCatV1.14B232,2013-08-24 12:54:00,
2013-08-24 08:56:00,69.8,56.2,30.27,ENE,64,3.0,3.0,62,0.00,,,0.00,520,WeatherCatV1.14B232,2013-08-24 12:56:00,
2013-08-24 08:58:00,69.6,54.2,30.27,ENE,64,0.0,5.0,58,0.00,,,0.00,520,WeatherCatV1.14B232,2013-08-24 12:58:00,
2013-08-24 08:59:00,69.5,55.0,30.27,ENE,64,2.0,5.0,60,0.00,,,0.00,520,WeatherCatV1.14B232,2013-08-24 12:59:00,
2013-08-24 09:01:00,69.3,55.3,30.27,ENE,64,1.0,1.0,61,0.00,,,0.00,520,WeatherCatV1.14B232,2013-08-24 13:01:00,
2013-08-24 09:02:00,69.3,55.3,30.27,ENE,64,1.0,1.0,61,0.00,,,0.00,520,WeatherCatV1.14B232,2013-08-24 13:02:00,
2013-08-24 09:03:00,69.2,55.2,30.27,ENE,64,0.0,1.0,61,0.00,,,0.00,520,WeatherCatV1.14B232,2013-08-24 13:03:00,
2013-08-24 09:04:00,69.3,55.3,30.27,ENE,64,0.0,1.0,61,0.00,,,0.00,520,WeatherCatV1.14B232,2013-08-24 13:04:00,
2013-08-24 09:07:00,69.3,55.3,30.27,ENE,64,0.0,0.0,61,0.00,,,0.00,520,WeatherCatV1.14B232,2013-08-24 13:07:00,
2013-08-24 09:09:00,69.4,55.4,30.27,ENE,64,1.0,1.0,61,0.00,,,0.00,520,WeatherCatV1.14B232,2013-08-24 13:09:00,
2013-08-24 09:10:00,69.5,55.9,30.27,ENE,64,0.0,2.0,62,0.00,,,0.00,520,WeatherCatV1.14B232,2013-08-24 13:10:00,
2013-08-24 09:12:00,69.4,55.4,30.27,ENE,64,0.0,2.0,61,0.00,,,0.00,520,WeatherCatV1.14B232,2013-08-24 13:12:00,
2013-08-24 09:14:00,69.6,55.1,30.27,ENE,63,0.0,1.0,60,0.00,,,0.00,520,WeatherCatV1.14B232,2013-08-24 13:14:00,
2013-08-24 09:15:00,69.7,55.2,30.27,ENE,63,0.0,1.0,60,0.00,,,0.00,520,WeatherCatV1.14B232,2013-08-24 13:15:00,
2013-08-24 09:17:00,69.9,55.4,30.27,ENE,64,1.0,2.0,60,0.00,,,0.00,520,WeatherCatV1.14B232,2013-08-24 13:17:00,
2013-08-24 09:19:00,70.1,55.6,30.27,ENE,64,2.0,2.0,60,0.00,,,0.00,520,WeatherCatV1.14B232,2013-08-24 13:19:00,
2013-08-24 09:20:00,70.2,55.2,30.27,ENE,64,2.0,2.0,59,0.00,,,0.00,520,WeatherCatV1.14B232,2013-08-24 13:20:00,
2013-08-24 09:22:00,70.3,55.7,30.27,ENE,64,0.0,1.0,60,0.00,,,0.00,520,WeatherCatV1.14B232,2013-08-24 13:22:00,
2013-08-24 09:24:00,70.4,55.4,30.27,ENE,63,1.0,1.0,59,0.00,,,0.00,520,WeatherCatV1.14B232,2013-08-24 13:24:00,
2013-08-24 09:25:00,70.5,55.5,30.27,ENE,63,0.0,1.0,59,0.00,,,0.00,520,WeatherCatV1.14B232,2013-08-24 13:25:00,
2013-08-24 09:26:00,70.5,55.9,30.27,ENE,64,2.0,2.0,60,0.00,,,0.00,520,WeatherCatV1.14B232,2013-08-24 13:26:00,
2013-08-24 09:27:00,70.4,54.9,30.27,ENE,63,1.0,4.0,58,0.00,,,0.00,520,WeatherCatV1.14B232,2013-08-24 13:27:00,
2013-08-24 09:29:00,70.2,54.2,30.27,ENE,63,0.0,2.0,57,0.00,,,0.00,520,WeatherCatV1.14B232,2013-08-24 13:29:00,
2013-08-24 09:30:00,70.2,54.2,30.27,ENE,64,1.0,2.0,57,0.00,,,0.00,520,WeatherCatV1.14B232,2013-08-24 13:30:00,
2013-08-24 09:31:00,70.3,54.8,30.27,ENE,63,0.0,1.0,58,0.00,,,0.00,520,WeatherCatV1.14B232,2013-08-24 13:31:00,
2013-08-24 09:32:00,70.3,55.3,30.27,ENE,64,0.0,2.0,59,0.00,,,0.00,520,WeatherCatV1.14B232,2013-08-24 13:32:00,
2013-08-24 09:34:00,70.5,55.5,30.27,ENE,63,0.0,3.0,59,0.00,,,0.00,520,WeatherCatV1.14B232,2013-08-24 13:34:00,
2013-08-24 09:35:00,70.5,55.5,30.27,ENE,64,0.0,1.0,59,0.00,,,0.00,520,WeatherCatV1.14B232,2013-08-24 13:35:00,
2013-08-24 09:36:00,70.6,55.6,30.27,ENE,64,1.0,2.0,59,0.00,,,0.00,520,WeatherCatV1.14B232,2013-08-24 13:36:00,
2013-08-24 09:37:00,70.6,54.6,30.27,ENE,63,0.0,2.0,57,0.00,,,0.00,520,WeatherCatV1.14B232,2013-08-24 13:37:00,
2013-08-24 09:40:00,70.8,55.8,30.27,ENE,64,1.0,2.0,59,0.00,,,0.00,520,WeatherCatV1.14B232,2013-08-24 13:40:00,
2013-08-24 09:41:00,71.0,55.5,30.28,ENE,63,1.0,1.0,58,0.00,,,0.00,520,WeatherCatV1.14B232,2013-08-24 13:41:00,
2013-08-24 09:42:00,71.1,56.0,30.28,ENE,64,0.0,2.0,59,0.00,,,0.00,520,WeatherCatV1.14B232,2013-08-24 13:42:00,
2013-08-24 09:45:00,71.7,56.6,30.27,ENE,63,0.0,0.0,59,0.00,,,0.00,520,WeatherCatV1.14B232,2013-08-24 13:45:00,
2013-08-24 09:46:00,72.0,55.9,30.28,ENE,64,1.0,1.0,57,0.00,,,0.00,520,WeatherCatV1.14B232,2013-08-24 13:46:00,
2013-08-24 09:47:00,72.1,56.0,30.27,ENE,64,0.0,2.0,57,0.00,,,0.00,520,WeatherCatV1.14B232,2013-08-24 13:47:00,
2013-08-24 09:50:00,72.3,54.7,30.27,ENE,63,0.0,3.0,54,0.00,,,0.00,520,WeatherCatV1.14B232,2013-08-24 13:50:00,
2013-08-24 09:52:00,72.3,54.7,30.28,ENE,63,1.0,2.0,54,0.00,,,0.00,520,WeatherCatV1.14B232,2013-08-24 13:52:00,
2013-08-24 09:53:00,72.2,55.1,30.28,ENE,63,2.0,2.0,55,0.00,,,0.00,520,WeatherCatV1.14B232,2013-08-24 13:53:00,
2013-08-24 09:55:00,72.1,55.0,30.28,ENE,63,3.0,3.0,55,0.00,,,0.00,520,WeatherCatV1.14B232,2013-08-24 13:55:00,
2013-08-24 09:57:00,71.8,53.7,30.28,ENE,64,1.0,3.0,53,0.00,,,0.00,520,WeatherCatV1.14B232,2013-08-24 13:57:00,
2013-08-24 09:58:00,71.8,54.2,30.28,ENE,63,2.0,3.0,54,0.00,,,0.00,520,WeatherCatV1.14B232,2013-08-24 13:58:00,
2013-08-24 10:00:00,71.7,56.1,30.28,ENE,63,0.0,1.0,58,0.00,,,0.00,520,WeatherCatV1.14B232,2013-08-24 14:00:00,
2013-08-24 10:02:00,71.8,54.7,30.28,ENE,63,1.0,1.0,55,0.00,,,0.00,520,WeatherCatV1.14B232,2013-08-24 14:02:00,
2013-08-24 10:03:00,71.8,54.7,30.28,ENE,63,1.0,1.0,55,0.00,,,0.00,520,WeatherCatV1.14B232,2013-08-24 14:03:00,
2013-08-24 10:05:00,72.0,55.4,30.28,ENE,64,2.0,2.0,56,0.00,,,0.00,520,WeatherCatV1.14B232,2013-08-24 14:05:00,
2013-08-24 10:07:00,72.0,53.9,30.28,ENE,64,1.0,4.0,53,0.00,,,0.00,520,WeatherCatV1.14B232,2013-08-24 14:07:00,
2013-08-24 10:08:00,72.0,54.9,30.28,ENE,63,1.0,1.0,55,0.00,,,0.00,520,WeatherCatV1.14B232,2013-08-24 14:08:00,
2013-08-24 10:09:00,72.0,54.4,30.28,ENE,63,2.0,2.0,54,0.00,,,0.00,520,WeatherCatV1.14B232,2013-08-24 14:09:00,
2013-08-24 10:10:00,71.9,54.3,30.28,ENE,64,1.0,3.0,54,0.00,,,0.00,520,WeatherCatV1.14B232,2013-08-24 14:10:00,
2013-08-24 10:12:00,71.9,54.3,30.28,ENE,63,1.0,3.0,54,0.00,,,0.00,520,WeatherCatV1.14B232,2013-08-24 14:12:00,
2013-08-24 10:13:00,71.9,54.8,30.28,ENE,63,0.0,3.0,55,0.00,,,0.00,520,WeatherCatV1.14B232,2013-08-24 14:13:00,
2013-08-24 10:14:00,71.9,54.8,30.28,ENE,63,2.0,2.0,55,0.00,,,0.00,520,WeatherCatV1.14B232,2013-08-24 14:14:00,
2013-08-24 10:15:00,71.9,54.3,30.28,ENE,63,3.0,3.0,54,0.00,,,0.00,520,WeatherCatV1.14B232,2013-08-24 14:15:00,
2013-08-24 10:18:00,71.9,54.3,30.28,ENE,63,2.0,3.0,54,0.00,,,0.00,520,WeatherCatV1.14B232,2013-08-24 14:18:00,
2013-08-24 10:19:00,71.9,55.3,30.28,ENE,63,0.0,3.0,56,0.00,,,0.00,520,WeatherCatV1.14B232,2013-08-24 14:19:00,
2013-08-24 10:21:00,72.2,55.1,30.28,ENE,64,0.0,0.0,55,0.00,,,0.00,520,WeatherCatV1.14B232,2013-08-24 14:21:00,
2013-08-24 10:23:00,72.4,54.3,30.28,ENE,63,0.0,2.0,53,0.00,,,0.00,520,WeatherCatV1.14B232,2013-08-24 14:23:00,
2013-08-24 10:24:00,72.5,54.9,30.28,ENE,63,0.0,1.0,54,0.00,,,0.00,520,WeatherCatV1.14B232,2013-08-24 14:24:00,
2013-08-24 10:26:00,72.8,55.2,30.28,ENE,64,0.0,2.0,54,0.00,,,0.00,520,WeatherCatV1.14B232,2013-08-24 14:26:00,
2013-08-24 10:28:00,72.9,54.8,30.28,ENE,63,0.0,3.0,53,0.00,,,0.00,520,WeatherCatV1.14B232,2013-08-24 14:28:00,
2013-08-24 10:29:00,73.0,55.4,30.28,ENE,63,0.0,4.0,54,0.00,,,0.00,520,WeatherCatV1.14B232,2013-08-24 14:29:00,
2013-08-24 10:31:00,73.3,56.6,30.28,ENE,63,0.0,2.0,56,0.00,,,0.00,520,WeatherCatV1.14B232,2013-08-24 14:31:00,
2013-08-24 10:33:00,73.5,55.8,30.28,ENE,63,1.0,2.0,54,0.00,,,0.00,520,WeatherCatV1.14B232,2013-08-24 14:33:00,
2013-08-24 10:34:00,73.6,56.4,30.28,ENE,63,1.0,4.0,55,0.00,,,0.00,520,WeatherCatV1.14B232,2013-08-24 14:34:00,
2013-08-24 10:36:00,73.5,54.8,30.28,ENE,64,1.0,2.0,52,0.00,,,0.00,520,WeatherCatV1.14B232,2013-08-24 14:36:00,
2013-08-24 10:38:00,73.5,55.8,30.28,ENE,63,0.0,0.0,54,0.00,,,0.00,520,WeatherCatV1.14B232,2013-08-24 14:38:00,
2013-08-24 10:39:00,73.6,55.9,30.28,ENE,64,2.0,2.0,54,0.00,,,0.00,520,WeatherCatV1.14B232,2013-08-24 14:39:00,
2013-08-24 10:41:00,74.0,56.3,30.28,ENE,63,0.0,1.0,54,0.00,,,0.00,520,WeatherCatV1.14B232,2013-08-24 14:41:00,
2013-08-24 10:43:00,74.4,57.2,30.28,ENE,63,1.0,1.0,55,0.00,,,0.00,520,WeatherCatV1.14B232,2013-08-24 14:43:00,
2013-08-24 10:44:00,74.5,56.2,30.28,ENE,63,0.0,1.0,53,0.00,,,0.00,520,WeatherCatV1.14B232,2013-08-24 14:44:00,
2013-08-24 10:46:00,75.0,56.7,30.28,ENE,64,0.0,1.0,53,0.00,,,0.00,520,WeatherCatV1.14B232,2013-08-24 14:46:00,
2013-08-24 10:48:00,75.2,56.3,30.28,ENE,63,0.0,1.0,52,0.00,,,0.00,520,WeatherCatV1.14B232,2013-08-24 14:48:00,
2013-08-24 10:49:00,75.2,56.3,30.28,ENE,64,0.0,1.0,52,0.00,,,0.00,520,WeatherCatV1.14B232,2013-08-24 14:49:00,
2013-08-24 10:51:00,75.5,55.0,30.28,ENE,63,0.0,2.0,49,0.00,,,0.00,520,WeatherCatV1.14B232,2013-08-24 14:51:00,
2013-08-24 10:53:00,75.6,55.6,30.28,ENE,63,1.0,1.0,50,0.00,,,0.00,520,WeatherCatV1.14B232,2013-08-24 14:53:00,
2013-08-24 10:54:00,75.6,55.6,30.28,ENE,63,0.0,1.0,50,0.00,,,0.00,520,WeatherCatV1.14B232,2013-08-24 14:54:00,
2013-08-24 10:57:00,75.9,56.5,30.28,ENE,63,0.0,2.0,51,0.00,,,0.00,520,WeatherCatV1.14B232,2013-08-24 14:57:00,
2013-08-24 10:58:00,75.9,55.3,30.28,ENE,64,0.0,2.0,49,0.00,,,0.00,520,WeatherCatV1.14B232,2013-08-24 14:58:00,
2013-08-24 10:59:00,75.9,55.3,30.28,ENE,64,0.0,2.0,49,0.00,,,0.00,520,WeatherCatV1.14B232,2013-08-24 14:59:00,
2013-08-24 11:02:00,76.0,55.4,30.28,ENE,64,1.0,3.0,49,0.00,,,0.00,520,WeatherCatV1.14B232,2013-08-24 15:02:00,
2013-08-24 11:04:00,76.0,57.1,30.28,ENE,63,1.0,1.0,52,0.00,,,0.00,520,WeatherCatV1.14B232,2013-08-24 15:04:00,
2013-08-24 11:05:00,76.0,55.4,30.28,ENE,63,1.0,1.0,49,0.00,,,0.00,520,WeatherCatV1.14B232,2013-08-24 15:05:00,
2013-08-24 11:07:00,75.9,54.2,30.28,ENE,64,0.0,3.0,47,0.00,,,0.00,520,WeatherCatV1.14B232,2013-08-24 15:07:00,
2013-08-24 11:09:00,75.9,55.9,30.28,ENE,64,1.0,1.0,50,0.00,,,0.00,520,WeatherCatV1.14B232,2013-08-24 15:09:00,
2013-08-24 11:10:00,76.0,55.4,30.28,ENE,64,3.0,3.0,49,0.00,,,0.00,520,WeatherCatV1.14B232,2013-08-24 15:10:00,
2013-08-24 11:13:00,75.5,56.1,30.28,ENE,64,0.0,2.0,51,0.00,,,0.00,520,WeatherCatV1.14B232,2013-08-24 15:13:00,
2013-08-24 11:14:00,75.5,54.4,30.28,ENE,63,2.0,5.0,48,0.00,,,0.00,520,WeatherCatV1.14B232,2013-08-24 15:14:00,
2013-08-24 11:15:00,75.4,54.9,30.28,ENE,64,1.0,5.0,49,0.00,,,0.00,520,WeatherCatV1.14B232,2013-08-24 15:15:00,
2013-08-24 11:18:00,75.4,54.9,30.28,ENE,63,0.0,2.0,49,0.00,,,0.00,520,WeatherCatV1.14B232,2013-08-24 15:18:00,
2013-08-24 11:19:00,75.4,54.9,30.28,ENE,63,1.0,2.0,49,0.00,,,0.00,520,WeatherCatV1.14B232,2013-08-24 15:19:00,
2013-08-24 11:20:00,75.4,54.9,30.28,ENE,63,1.0,1.0,49,0.00,,,0.00,520,WeatherCatV1.14B232,2013-08-24 15:20:00,
2013-08-24 11:23:00,75.6,55.1,30.28,ENE,64,1.0,2.0,49,0.00,,,0.00,520,WeatherCatV1.14B232,2013-08-24 15:23:00,
2013-08-24 11:24:00,75.6,53.9,30.28,ENE,64,3.0,3.0,47,0.00,,,0.00,520,WeatherCatV1.14B232,2013-08-24 15:24:00,
2013-08-24 11:25:00,75.6,53.3,30.28,ENE,63,0.0,3.0,46,0.00,,,0.00,520,WeatherCatV1.14B232,2013-08-24 15:25:00,
2013-08-24 11:28:00,75.9,54.8,30.28,ENE,64,1.0,1.0,48,0.00,,,0.00,520,WeatherCatV1.14B232,2013-08-24 15:28:00,
2013-08-24 11:29:00,76.1,54.4,30.28,ENE,63,0.0,4.0,47,0.00,,,0.00,520,WeatherCatV1.14B232,2013-08-24 15:29:00,
2013-08-24 11:30:00,76.2,55.1,30.28,ENE,64,1.0,4.0,48,0.00,,,0.00,520,WeatherCatV1.14B232,2013-08-24 15:30:00,
2013-08-24 11:33:00,76.8,55.0,30.28,ENE,63,1.0,2.0,47,0.00,,,0.00,520,WeatherCatV1.14B232,2013-08-24 15:33:00,
2013-08-24 11:34:00,76.9,55.1,30.28,ENE,63,1.0,1.0,47,0.00,,,0.00,520,WeatherCatV1.14B232,2013-08-24 15:34:00,
2013-08-24 11:35:00,77.0,54.0,30.28,ENE,64,0.0,2.0,45,0.00,,,0.00,520,WeatherCatV1.14B232,2013-08-24 15:35:00,
2013-08-24 11:38:00,76.8,53.8,30.28,ENE,64,0.0,1.0,45,0.00,,,0.00,520,WeatherCatV1.14B232,2013-08-24 15:38:00,
2013-08-24 11:39:00,76.8,55.0,30.28,ENE,63,0.0,1.0,47,0.00,,,0.00,520,WeatherCatV1.14B232,2013-08-24 15:39:00,
2013-08-24 11:40:00,76.8,55.6,30.28,ENE,64,0.0,1.0,48,0.00,,,0.00,520,WeatherCatV1.14B232,2013-08-24 15:40:00,
2013-08-24 11:41:00,76.9,55.7,30.28,ENE,63,0.0,1.0,48,0.00,,,0.00,520,WeatherCatV1.14B232,2013-08-24 15:41:00,
2013-08-24 11:43:00,77.5,55.7,30.28,ENE,64,0.0,1.0,47,0.00,,,0.00,520,WeatherCatV1.14B232,2013-08-24 15:43:00,
2013-08-24 11:44:00,77.7,57.0,30.28,ENE,64,2.0,2.0,49,0.00,,,0.00,520,WeatherCatV1.14B232,2013-08-24 15:44:00,
2013-08-24 11:45:00,77.9,57.2,30.28,ENE,64,1.0,2.0,49,0.00,,,0.00,520,WeatherCatV1.14B232,2013-08-24 15:45:00,
2013-08-24 11:46:00,77.9,56.0,30.28,ENE,63,1.0,2.0,47,0.00,,,0.00,520,WeatherCatV1.14B232,2013-08-24 15:46:00,
2013-08-24 11:48:00,77.8,55.3,30.28,ENE,63,1.0,2.0,46,0.00,,,0.00,520,WeatherCatV1.14B232,2013-08-24 15:48:00,
2013-08-24 11:49:00,77.8,54.1,30.28,ENE,63,0.0,2.0,44,0.00,,,0.00,520,WeatherCatV1.14B232,2013-08-24 15:49:00,
2013-08-24 11:50:00,77.7,54.6,30.28,ENE,64,1.0,1.0,45,0.00,,,0.00,520,WeatherCatV1.14B232,2013-08-24 15:50:00,
2013-08-24 11:51:00,77.7,54.6,30.28,ENE,63,1.0,1.0,45,0.00,,,0.00,520,WeatherCatV1.14B232,2013-08-24 15:51:00,
2013-08-24 11:54:00,77.3,54.3,30.28,ENE,63,1.0,2.0,45,0.00,,,0.00,520,WeatherCatV1.14B232,2013-08-24 15:54:00,
2013-08-24 11:55:00,77.2,54.2,30.27,ENE,63,1.0,2.0,45,0.00,,,0.00,520,WeatherCatV1.14B232,2013-08-24 15:55:00,
2013-08-24 11:56:00,77.1,54.1,30.27,ENE,64,1.0,2.0,45,0.00,,,0.00,520,WeatherCatV1.14B232,2013-08-24 15:56:00,
2013-08-24 11:59:00,77.1,55.3,30.27,ENE,64,0.0,2.0,47,0.00,,,0.00,520,WeatherCatV1.14B232,2013-08-24 15:59:00,
2013-08-24 12:00:00,77.3,54.9,30.27,ENE,63,1.0,1.0,46,0.00,,,0.00,520,WeatherCatV1.14B232,2013-08-24 16:00:00,
2013-08-24 12:01:00,77.4,55.0,30.27,ENE,63,2.0,2.0,46,0.00,,,0.00,520,WeatherCatV1.14B232,2013-08-24 16:01:00,
2013-08-24 12:02:00,77.4,55.0,30.28,ENE,63,3.0,3.0,46,0.00,,,0.00,520,WeatherCatV1.14B232,2013-08-24 16:02:00,
2013-08-24 12:04:00,77.1,53.5,30.28,ENE,63,0.0,3.0,44,0.00,,,0.00,520,WeatherCatV1.14B232,2013-08-24 16:04:00,
2013-08-24 12:05:00,76.9,53.3,30.28,ENE,64,1.0,3.0,44,0.00,,,0.00,520,WeatherCatV1.14B232,2013-08-24 16:05:00,
2013-08-24 12:06:00,76.8,53.2,30.28,ENE,63,0.0,1.0,44,0.00,,,0.00,520,WeatherCatV1.14B232,2013-08-24 16:06:00,
2013-08-24 12:07:00,76.9,54.5,30.28,ENE,64,1.0,1.0,46,0.00,,,0.00,520,WeatherCatV1.14B232,2013-08-24 16:07:00,
2013-08-24 12:09:00,76.7,51.9,30.28,ENE,64,2.0,5.0,42,0.00,,,0.00,520,WeatherCatV1.14B232,2013-08-24 16:09:00,
2013-08-24 12:10:00,76.5,52.3,30.28,ENE,63,1.0,2.0,43,0.00,,,0.00,520,WeatherCatV1.14B232,2013-08-24 16:10:00,
2013-08-24 12:11:00,76.4,52.2,30.28,ENE,63,0.0,2.0,43,0.00,,,0.00,520,WeatherCatV1.14B232,2013-08-24 16:11:00,
2013-08-24 12:12:00,76.2,52.7,30.28,ENE,64,1.0,2.0,44,0.00,,,0.00,520,WeatherCatV1.14B232,2013-08-24 16:12:00,
2013-08-24 12:14:00,76.4,54.7,30.28,ENE,64,0.0,1.0,47,0.00,,,0.00,520,WeatherCatV1.14B232,2013-08-24 16:14:00,
2013-08-24 12:16:00,76.7,54.3,30.28,ENE,64,1.0,1.0,46,0.00,,,0.00,520,WeatherCatV1.14B232,2013-08-24 16:16:00,
2013-08-24 12:17:00,77.0,54.0,30.28,ENE,64,3.0,3.0,45,0.00,,,0.00,520,WeatherCatV1.14B232,2013-08-24 16:17:00,
2013-08-24 12:20:00,77.1,54.1,30.28,ENE,64,0.0,1.0,45,0.00,,,0.00,520,WeatherCatV1.14B232,2013-08-24 16:20:00,
2013-08-24 12:21:00,77.2,54.2,30.28,ENE,63,0.0,2.0,45,0.00,,,0.00,520,WeatherCatV1.14B232,2013-08-24 16:21:00,
2013-08-24 12:22:00,77.4,55.0,30.28,ENE,64,1.0,2.0,46,0.00,,,0.00,520,WeatherCatV1.14B232,2013-08-24 16:22:00,
2013-08-24 12:23:00,77.5,54.5,30.28,ENE,64,1.0,1.0,45,0.00,,,0.00,520,WeatherCatV1.14B232,2013-08-24 16:23:00,
2013-08-24 12:25:00,77.7,54.6,30.27,ENE,63,0.0,2.0,45,0.00,,,0.00,520,WeatherCatV1.14B232,2013-08-24 16:25:00,
2013-08-24 12:26:00,77.8,54.7,30.27,ENE,64,2.0,3.0,45,0.00,,,0.00,520,WeatherCatV1.14B232,2013-08-24 16:26:00,
2013-08-24 12:27:00,77.9,54.2,30.27,ENE,64,1.0,3.0,44,0.00,,,0.00,520,WeatherCatV1.14B232,2013-08-24 16:27:00,
2013-08-24 12:28:00,77.8,54.7,30.27,ENE,64,0.0,1.0,45,0.00,,,0.00,520,WeatherCatV1.14B232,2013-08-24 16:28:00,
2013-08-24 12:30:00,77.9,54.8,30.27,ENE,64,0.0,3.0,45,0.00,,,0.00,520,WeatherCatV1.14B232,2013-08-24 16:30:00,
2013-08-24 12:31:00,78.0,54.9,30.27,ENE,63,1.0,2.0,45,0.00,,,0.00,520,WeatherCatV1.14B232,2013-08-24 16:31:00,
2013-08-24 12:32:00,78.0,54.3,30.27,ENE,64,0.0,2.0,44,0.00,,,0.00,520,WeatherCatV1.14B232,2013-08-24 16:32:00,
2013-08-24 12:33:00,78.1,54.4,30.27,ENE,64,2.0,2.0,44,0.00,,,0.00,520,WeatherCatV1.14B232,2013-08-24 16:33:00,
2013-08-24 12:35:00,77.5,53.8,30.27,ENE,64,2.0,4.0,44,0.00,,,0.00,520,WeatherCatV1.14B232,2013-08-24 16:35:00,
2013-08-24 12:37:00,77.3,54.9,30.27,ENE,64,0.0,1.0,46,0.00,,,0.00,520,WeatherCatV1.14B232,2013-08-24 16:37:00,
2013-08-24 12:38:00,77.4,55.0,30.27,ENE,64,1.0,1.0,46,0.00,,,0.00,520,WeatherCatV1.14B232,2013-08-24 16:38:00,
2013-08-24 12:40:00,77.6,53.9,30.27,ENE,63,1.0,2.0,44,0.00,,,0.00,520,WeatherCatV1.14B232,2013-08-24 16:40:00,
2013-08-24 12:42:00,77.7,53.4,30.27,ENE,64,1.0,1.0,43,0.00,,,0.00,520,WeatherCatV1.14B232,2013-08-24 16:42:00,
2013-08-24 12:43:00,77.8,54.1,30.27,ENE,64,0.0,1.0,44,0.00,,,0.00,520,WeatherCatV1.14B232,2013-08-24 16:43:00,
2013-08-24 12:45:00,77.9,53.6,30.27,ENE,64,0.0,2.0,43,0.00,,,0.00,520,WeatherCatV1.14B232,2013-08-24 16:45:00,
2013-08-24 12:47:00,78.1,54.4,30.27,ENE,64,3.0,3.0,44,0.00,,,0.00,520,WeatherCatV1.14B232,2013-08-24 16:47:00,
2013-08-24 12:48:00,78.1,53.8,30.27,ENE,63,2.0,3.0,43,0.00,,,0.00,520,WeatherCatV1.14B232,2013-08-24 16:48:00,
2013-08-24 12:50:00,77.8,55.3,30.27,ENE,64,1.0,2.0,46,0.00,,,0.00,520,WeatherCatV1.14B232,2013-08-24 16:50:00,
2013-08-24 12:52:00,77.8,54.7,30.27,ENE,63,0.0,1.0,45,0.00,,,0.00,520,WeatherCatV1.14B232,2013-08-24 16:52:00,
2013-08-24 12:53:00,77.8,54.7,30.27,ENE,64,1.0,1.0,45,0.00,,,0.00,520,WeatherCatV1.14B232,2013-08-24 16:53:00,
2013-08-24 12:55:00,78.1,54.4,30.27,ENE,63,0.0,1.0,44,0.00,,,0.00,520,WeatherCatV1.14B232,2013-08-24 16:55:00,
2013-08-24 12:57:00,78.3,53.3,30.27,ENE,64,1.0,3.0,42,0.00,,,0.00,520,WeatherCatV1.14B232,2013-08-24 16:57:00,
2013-08-24 12:58:00,78.3,53.9,30.27,ENE,63,1.0,3.0,43,0.00,,,0.00,520,WeatherCatV1.14B232,2013-08-24 16:58:00,
2013-08-24 13:00:00,78.2,53.2,30.27,ENE,63,0.0,2.0,42,0.00,,,0.00,520,WeatherCatV1.14B232,2013-08-24 17:00:00,
2013-08-24 13:02:00,78.1,55.0,30.27,ENE,64,1.0,3.0,45,0.00,,,0.00,520,WeatherCatV1.14B232,2013-08-24 17:02:00,
2013-08-24 13:03:00,78.1,53.8,30.27,ENE,64,5.0,5.0,43,0.00,,,0.00,520,WeatherCatV1.14B232,2013-08-24 17:03:00,
2013-08-24 13:06:00,77.5,53.2,30.27,ENE,64,0.0,4.0,43,0.00,,,0.00,520,WeatherCatV1.14B232,2013-08-24 17:06:00,
2013-08-24 13:08:00,77.4,52.5,30.27,ENE,63,1.0,2.0,42,0.00,,,0.00,520,WeatherCatV1.14B232,2013-08-24 17:08:00,
2013-08-24 13:11:00,77.5,54.5,30.27,ENE,63,1.0,1.0,45,0.00,,,0.00,520,WeatherCatV1.14B232,2013-08-24 17:11:00,
2013-08-24 13:13:00,77.6,53.9,30.27,ENE,63,1.0,2.0,44,0.00,,,0.00,520,WeatherCatV1.14B232,2013-08-24 17:13:00,
2013-08-24 13:14:00,77.7,53.4,30.27,ENE,63,1.0,3.0,43,0.00,,,0.00,520,WeatherCatV1.14B232,2013-08-24 17:14:00,
2013-08-24 13:16:00,77.8,52.8,30.27,ENE,64,0.0,2.0,42,0.00,,,0.00,520,WeatherCatV1.14B232,2013-08-24 17:16:00,
2013-08-24 13:18:00,77.8,53.5,30.27,ENE,63,1.0,2.0,43,0.00,,,0.00,520,WeatherCatV1.14B232,2013-08-24 17:18:00,
2013-08-24 13:19:00,77.8,54.1,30.27,ENE,64,2.0,2.0,44,0.00,,,0.00,520,WeatherCatV1.14B232,2013-08-24 17:19:00,
2013-08-24 13:21:00,77.8,54.1,30.27,ENE,64,0.0,1.0,44,0.00,,,0.00,520,WeatherCatV1.14B232,2013-08-24 17:21:00,
2013-08-24 13:23:00,78.0,53.7,30.27,ENE,64,0.0,3.0,43,0.00,,,0.00,520,WeatherCatV1.14B232,2013-08-24 17:23:00,
2013-08-24 13:24:00,78.1,55.0,30.27,ENE,63,2.0,3.0,45,0.00,,,0.00,520,WeatherCatV1.14B232,2013-08-24 17:24:00,
2013-08-24 13:26:00,78.6,54.2,30.27,ENE,63,1.0,1.0,43,0.00,,,0.00,520,WeatherCatV1.14B232,2013-08-24 17:26:00,
2013-08-24 13:28:00,78.8,53.7,30.27,ENE,63,0.0,1.0,42,0.00,,,0.00,520,WeatherCatV1.14B232,2013-08-24 17:28:00,
2013-08-24 13:29:00,78.8,54.4,30.27,ENE,63,0.0,1.0,43,0.00,,,0.00,520,WeatherCatV1.14B232,2013-08-24 17:29:00,
2013-08-24 13:30:00,79.0,54.6,30.27,ENE,63,0.0,3.0,43,0.00,,,0.00,520,WeatherCatV1.14B232,2013-08-24 17:30:00,
2013-08-24 13:32:00,78.9,53.8,30.27,ENE,63,0.0,2.0,42,0.00,,,0.00,520,WeatherCatV1.14B232,2013-08-24 17:32:00,
2013-08-24 13:33:00,79.0,54.6,30.27,ENE,64,0.0,1.0,43,0.00,,,0.00,520,WeatherCatV1.14B232,2013-08-24 17:33:00,
2013-08-24 13:34:00,79.2,55.4,30.27,ENE,63,1.0,2.0,44,0.00,,,0.00,520,WeatherCatV1.14B232,2013-08-24 17:34:00,
2013-08-24 13:35:00,79.3,55.5,30.27,ENE,63,0.0,2.0,44,0.00,,,0.00,520,WeatherCatV1.14B232,2013-08-24 17:35:00,
2013-08-24 13:37:00,79.4,52.9,30.27,ENE,64,2.0,3.0,40,0.00,,,0.00,520,WeatherCatV1.14B232,2013-08-24 17:37:00,
2013-08-24 13:38:00,79.3,53.5,30.27,ENE,64,0.0,3.0,41,0.00,,,0.00,520,WeatherCatV1.14B232,2013-08-24 17:38:00,
2013-08-24 13:40:00,79.1,53.4,30.27,ENE,63,3.0,3.0,41,0.00,,,0.00,520,WeatherCatV1.14B232,2013-08-24 17:40:00,
2013-08-24 13:42:00,78.3,52.0,30.27,ENE,63,0.0,5.0,40,0.00,,,0.00,520,WeatherCatV1.14B232,2013-08-24 17:42:00,
2013-08-24 13:43:00,77.9,52.9,30.27,ENE,63,0.0,1.0,42,0.00,,,0.00,520,WeatherCatV1.14B232,2013-08-24 17:43:00,
2013-08-24 13:45:00,77.8,53.5,30.27,ENE,64,1.0,3.0,43,0.00,,,0.00,520,WeatherCatV1.14B232,2013-08-24 17:45:00,
2013-08-24 13:46:00,77.8,54.7,30.27,ENE,63,1.0,3.0,45,0.00,,,0.00,520,WeatherCatV1.14B232,2013-08-24 17:46:00,
2013-08-24 13:47:00,77.9,54.2,30.27,ENE,63,2.0,3.0,44,0.00,,,0.00,520,WeatherCatV1.14B232,2013-08-24 17:47:00,
2013-08-24 13:49:00,78.1,54.4,30.27,ENE,64,1.0,3.0,44,0.00,,,0.00,520,WeatherCatV1.14B232,2013-08-24 17:49:00,
2013-08-24 13:50:00,78.3,54.6,30.27,ENE,63,0.0,2.0,44,0.00,,,0.00,520,WeatherCatV1.14B232,2013-08-24 17:50:00,
2013-08-24 13:51:00,78.3,54.6,30.27,ENE,64,0.0,2.0,44,0.00,,,0.00,520,WeatherCatV1.14B232,2013-08-24 17:51:00,
2013-08-24 13:52:00,78.5,54.7,30.27,ENE,64,0.0,2.0,44,0.00,,,0.00,520,WeatherCatV1.14B232,2013-08-24 17:52:00,
2013-08-24 13:54:00,78.7,54.9,30.27,ENE,63,2.0,2.0,44,0.00,,,0.00,520,WeatherCatV1.14B232,2013-08-24 17:54:00,
2013-08-24 13:56:00,78.9,55.7,30.27,ENE,64,1.0,2.0,45,0.00,,,0.00,520,WeatherCatV1.14B232,2013-08-24 17:56:00,
2013-08-24 13:57:00,79.1,55.9,30.27,ENE,64,1.0,2.0,45,0.00,,,0.00,520,WeatherCatV1.14B232,2013-08-24 17:57:00,
2013-08-24 13:59:00,79.2,54.1,30.28,ENE,63,1.0,1.0,42,0.00,,,0.00,520,WeatherCatV1.14B232,2013-08-24 17:59:00,
2013-08-24 14:01:00,79.3,56.1,30.27,ENE,64,0.0,0.0,45,0.00,,,0.00,520,WeatherCatV1.14B232,2013-08-24 18:01:00,
2013-08-24 14:03:00,79.3,53.5,30.28,ENE,64,0.0,5.0,41,0.00,,,0.00,520,WeatherCatV1.14B232,2013-08-24 18:03:00,
2013-08-24 14:04:00,79.2,53.4,30.27,ENE,63,0.0,5.0,41,0.00,,,0.00,520,WeatherCatV1.14B232,2013-08-24 18:04:00,
2013-08-24 14:06:00,79.1,53.4,30.27,ENE,63,2.0,2.0,41,0.00,,,0.00,520,WeatherCatV1.14B232,2013-08-24 18:06:00,
2013-08-24 14:08:00,79.1,53.4,30.27,ENE,64,2.0,3.0,41,0.00,,,0.00,520,WeatherCatV1.14B232,2013-08-24 18:08:00,
2013-08-24 14:09:00,79.0,53.9,30.27,ENE,64,0.0,3.0,42,0.00,,,0.00,520,WeatherCatV1.14B232,2013-08-24 18:09:00,
2013-08-24 14:10:00,79.0,53.9,30.27,ENE,64,0.0,3.0,42,0.00,,,0.00,520,WeatherCatV1.14B232,2013-08-24 18:10:00,
2013-08-24 14:11:00,79.0,54.6,30.27,ENE,64,1.0,1.0,43,0.00,,,0.00,520,WeatherCatV1.14B232,2013-08-24 18:11:00,
2013-08-24 14:12:00,79.2,55.4,30.27,ENE,64,2.0,3.0,44,0.00,,,0.00,520,WeatherCatV1.14B232,2013-08-24 18:12:00,
2013-08-24 14:13:00,79.2,53.4,30.27,ENE,64,0.0,3.0,41,0.00,,,0.00,520,WeatherCatV1.14B232,2013-08-24 18:13:00,
2013-08-24 14:15:00,79.2,53.4,30.27,ENE,63,0.0,3.0,41,0.00,,,0.00,520,WeatherCatV1.14B232,2013-08-24 18:15:00,
2013-08-24 14:16:00,79.2,54.1,30.27,ENE,64,0.0,0.0,42,0.00,,,0.00,520,WeatherCatV1.14B232,2013-08-24 18:16:00,
2013-08-24 14:18:00,79.3,54.8,30.27,ENE,63,0.0,1.0,43,0.00,,,0.00,520,WeatherCatV1.14B232,2013-08-24 18:18:00,
2013-08-24 14:20:00,79.4,55.6,30.27,ENE,64,1.0,2.0,44,0.00,,,0.00,520,WeatherCatV1.14B232,2013-08-24 18:20:00,
2013-08-24 14:22:00,79.4,53.6,30.27,ENE,63,4.0,5.0,41,0.00,,,0.00,520,WeatherCatV1.14B232,2013-08-24 18:22:00,
2013-08-24 14:23:00,79.3,53.5,30.27,ENE,64,2.0,5.0,41,0.00,,,0.00,520,WeatherCatV1.14B232,2013-08-24 18:23:00,
2013-08-24 14:24:00,79.0,53.3,30.27,ENE,63,2.0,3.0,41,0.00,,,0.00,520,WeatherCatV1.14B232,2013-08-24 18:24:00,
2013-08-24 14:25:00,78.6,52.9,30.27,ENE,64,2.0,2.0,41,0.00,,,0.00,520,WeatherCatV1.14B232,2013-08-24 18:25:00,
2013-08-24 14:27:00,78.3,53.9,30.27,ENE,64,2.0,2.0,43,0.00,,,0.00,520,WeatherCatV1.14B232,2013-08-24 18:27:00,
2013-08-24 14:28:00,78.2,55.1,30.27,ENE,64,0.0,2.0,45,0.00,,,0.00,520,WeatherCatV1.14B232,2013-08-24 18:28:00,
2013-08-24 14:29:00,78.2,55.1,30.27,ENE,63,0.0,2.0,45,0.00,,,0.00,520,WeatherCatV1.14B232,2013-08-24 18:29:00,
2013-08-24 14:30:00,78.3,53.3,30.27,ENE,64,2.0,2.0,42,0.00,,,0.00,520,WeatherCatV1.14B232,2013-08-24 18:30:00,
2013-08-24 14:32:00,78.1,52.5,30.27,ENE,63,0.0,4.0,41,0.00,,,0.00,520,WeatherCatV1.14B232,2013-08-24 18:32:00,
2013-08-24 14:34:00,78.1,54.4,30.27,ENE,63,1.0,2.0,44,0.00,,,0.00,520,WeatherCatV1.14B232,2013-08-24 18:34:00,
2013-08-24 14:35:00,78.3,54.6,30.27,ENE,63,0.0,0.0,44,0.00,,,0.00,520,WeatherCatV1.14B232,2013-08-24 18:35:00,
2013-08-24 14:37:00,78.6,55.5,30.27,ENE,63,0.0,1.0,45,0.00,,,0.00,520,WeatherCatV1.14B232,2013-08-24 18:37:00,
2013-08-24 14:39:00,78.7,54.3,30.27,ENE,63,1.0,1.0,43,0.00,,,0.00,520,WeatherCatV1.14B232,2013-08-24 18:39:00,
2013-08-24 14:40:00,78.7,54.9,30.27,ENE,63,0.0,2.0,44,0.00,,,0.00,520,WeatherCatV1.14B232,2013-08-24 18:40:00,
2013-08-24 14:41:00,78.7,54.9,30.27,ENE,64,0.0,2.0,44,0.00,,,0.00,520,WeatherCatV1.14B232,2013-08-24 18:41:00,
2013-08-24 14:42:00,78.8,55.6,30.27,ENE,63,1.0,1.0,45,0.00,,,0.00,520,WeatherCatV1.14B232,2013-08-24 18:42:00,
2013-08-24 14:44:00,78.8,55.0,30.27,ENE,63,1.0,2.0,44,0.00,,,0.00,520,WeatherCatV1.14B232,2013-08-24 18:44:00,
2013-08-24 14:46:00,78.8,55.0,30.27,ENE,64,0.0,1.0,44,0.00,,,0.00,520,WeatherCatV1.14B232,2013-08-24 18:46:00,
2013-08-24 14:48:00,78.8,53.1,30.27,ENE,63,0.0,1.0,41,0.00,,,0.00,520,WeatherCatV1.14B232,2013-08-24 18:48:00,
2013-08-24 14:49:00,78.6,53.6,30.27,ENE,63,0.0,2.0,42,0.00,,,0.00,520,WeatherCatV1.14B232,2013-08-24 18:49:00,
2013-08-24 14:51:00,78.4,52.7,30.26,ENE,64,0.0,2.0,41,0.00,,,0.00,520,WeatherCatV1.14B232,2013-08-24 18:51:00,
2013-08-24 14:53:00,78.2,53.2,30.27,ENE,64,0.0,0.0,42,0.00,,,0.00,520,WeatherCatV1.14B232,2013-08-24 18:53:00,
2013-08-24 14:54:00,78.2,53.8,30.27,ENE,64,0.0,2.0,43,0.00,,,0.00,520,WeatherCatV1.14B232,2013-08-24 18:54:00,
2013-08-24 14:55:00,78.2,55.1,30.27,ENE,63,0.0,2.0,45,0.00,,,0.00,520,WeatherCatV1.14B232,2013-08-24 18:55:00,
2013-08-24 14:56:00,78.3,53.9,30.27,ENE,64,0.0,1.0,43,0.00,,,0.00,520,WeatherCatV1.14B232,2013-08-24 18:56:00,
2013-08-24 14:58:00,78.2,52.5,30.27,ENE,63,0.0,5.0,41,0.00,,,0.00,520,WeatherCatV1.14B232,2013-08-24 18:58:00,
2013-08-24 14:59:00,78.1,53.1,30.27,ENE,63,1.0,2.0,42,0.00,,,0.00,520,WeatherCatV1.14B232,2013-08-24 18:59:00,
2013-08-24 15:00:00,78.0,53.0,30.27,ENE,63,1.0,2.0,42,0.00,,,0.00,520,WeatherCatV1.14B232,2013-08-24 19:00:00,
2013-08-24 15:01:00,78.0,51.7,30.27,ENE,64,0.0,1.0,40,0.00,,,0.00,520,WeatherCatV1.14B232,2013-08-24 19:01:00,
2013-08-24 15:03:00,77.9,54.2,30.27,ENE,63,0.0,1.0,44,0.00,,,0.00,520,WeatherCatV1.14B232,2013-08-24 19:03:00,
2013-08-24 15:04:00,77.9,53.6,30.27,ENE,64,0.0,1.0,43,0.00,,,0.00,520,WeatherCatV1.14B232,2013-08-24 19:04:00,
2013-08-24 15:05:00,77.9,53.6,30.27,ENE,63,0.0,1.0,43,0.00,,,0.00,520,WeatherCatV1.14B232,2013-08-24 19:05:00,
2013-08-24 15:06:00,78.0,52.4,30.27,ENE,63,1.0,2.0,41,0.00,,,0.00,520,WeatherCatV1.14B232,2013-08-24 19:06:00,
2013-08-24 15:08:00,78.0,52.4,30.27,ENE,63,0.0,4.0,41,0.00,,,0.00,520,WeatherCatV1.14B232,2013-08-24 19:08:00,
2013-08-24 15:10:00,78.0,54.3,30.27,ENE,64,0.0,1.0,44,0.00,,,0.00,520,WeatherCatV1.14B232,2013-08-24 19:10:00,
2013-08-24 15:11:00,77.9,52.9,30.27,ENE,64,0.0,1.0,42,0.00,,,0.00,520,WeatherCatV1.14B232,2013-08-24 19:11:00,
2013-08-24 15:12:00,77.9,52.9,30.27,ENE,63,0.0,1.0,42,0.00,,,0.00,520,WeatherCatV1.14B232,2013-08-24 19:12:00,
2013-08-24 15:13:00,77.9,52.9,30.26,ENE,63,0.0,1.0,42,0.00,,,0.00,520,WeatherCatV1.14B232,2013-08-24 19:13:00,
2013-08-24 15:15:00,77.8,53.5,30.26,ENE,63,1.0,1.0,43,0.00,,,0.00,520,WeatherCatV1.14B232,2013-08-24 19:15:00,
2013-08-24 15:16:00,77.8,53.5,30.26,ENE,64,0.0,1.0,43,0.00,,,0.00,520,WeatherCatV1.14B232,2013-08-24 19:16:00,
2013-08-24 15:17:00,77.8,53.5,30.26,ENE,64,0.0,1.0,43,0.00,,,0.00,520,WeatherCatV1.14B232,2013-08-24 19:17:00,
2013-08-24 15:19:00,77.9,54.2,30.26,ENE,64,0.0,0.0,44,0.00,,,0.00,520,WeatherCatV1.14B232,2013-08-24 19:19:00,
2013-08-24 15:20:00,78.0,54.9,30.26,ENE,63,0.0,0.0,45,0.00,,,0.00,520,WeatherCatV1.14B232,2013-08-24 19:20:00,
2013-08-24 15:21:00,78.3,55.8,30.26,ENE,63,0.0,0.0,46,0.00,,,0.00,520,WeatherCatV1.14B232,2013-08-24 19:21:00,
2013-08-24 15:22:00,78.3,55.2,30.26,ENE,63,0.0,0.0,45,0.00,,,0.00,520,WeatherCatV1.14B232,2013-08-24 19:22:00,
2013-08-24 15:24:00,78.6,54.8,30.26,ENE,63,0.0,1.0,44,0.00,,,0.00,520,WeatherCatV1.14B232,2013-08-24 19:24:00,
2013-08-24 15:25:00,78.7,54.9,30.26,ENE,63,0.0,1.0,44,0.00,,,0.00,520,WeatherCatV1.14B232,2013-08-24 19:25:00,
2013-08-24 15:27:00,78.8,55.6,30.26,ENE,63,0.0,1.0,45,0.00,,,0.00,520,WeatherCatV1.14B232,2013-08-24 19:27:00,
2013-08-24 15:29:00,78.9,55.1,30.26,ENE,63,0.0,1.0,44,0.00,,,0.00,520,WeatherCatV1.14B232,2013-08-24 19:29:00,
2013-08-24 15:30:00,79.0,55.2,30.26,ENE,64,1.0,2.0,44,0.00,,,0.00,520,WeatherCatV1.14B232,2013-08-24 19:30:00,
2013-08-24 15:32:00,78.9,55.7,30.26,ENE,63,1.0,2.0,45,0.00,,,0.00,520,WeatherCatV1.14B232,2013-08-24 19:32:00,
2013-08-24 15:33:00,78.9,55.1,30.26,ENE,63,2.0,2.0,44,0.00,,,0.00,520,WeatherCatV1.14B232,2013-08-24 19:33:00,
2013-08-24 15:34:00,78.6,52.9,30.26,ENE,63,2.0,3.0,41,0.00,,,0.00,520,WeatherCatV1.14B232,2013-08-24 19:34:00,
2013-08-24 15:35:00,78.4,52.7,30.26,ENE,65,1.0,3.0,41,0.00,,,0.00,520,WeatherCatV1.14B232,2013-08-24 19:35:00,
2013-08-24 15:36:00,78.4,52.7,30.26,ENE,63,1.0,3.0,41,0.00,,,0.00,520,WeatherCatV1.14B232,2013-08-24 19:36:00,
2013-08-24 15:37:00,78.1,53.1,30.26,ENE,63,2.0,2.0,42,0.00,,,0.00,520,WeatherCatV1.14B232,2013-08-24 19:37:00,
2013-08-24 15:38:00,78.0,53.0,30.26,ENE,63,2.0,2.0,42,0.00,,,0.00,520,WeatherCatV1.14B232,2013-08-24 19:38:00,
2013-08-24 15:40:00,77.7,52.8,30.26,ENE,64,1.0,4.0,42,0.00,,,0.00,520,WeatherCatV1.14B232,2013-08-24 19:40:00,
2013-08-24 15:41:00,77.5,51.9,30.26,ENE,63,2.0,3.0,41,0.00,,,0.00,520,WeatherCatV1.14B232,2013-08-24 19:41:00,
2013-08-24 15:42:00,77.3,51.1,30.26,ENE,63,0.0,2.0,40,0.00,,,0.00,520,WeatherCatV1.14B232,2013-08-24 19:42:00,
2013-08-24 15:43:00,77.2,51.7,30.26,ENE,63,0.0,2.0,41,0.00,,,0.00,520,WeatherCatV1.14B232,2013-08-24 19:43:00,
2013-08-24 15:45:00,77.1,52.2,30.26,ENE,63,1.0,2.0,42,0.00,,,0.00,520,WeatherCatV1.14B232,2013-08-24 19:45:00,
2013-08-24 15:46:00,77.0,52.8,30.26,ENE,63,0.0,2.0,43,0.00,,,0.00,520,WeatherCatV1.14B232,2013-08-24 19:46:00,
2013-08-24 15:47:00,76.9,52.7,30.26,ENE,63,1.0,1.0,43,0.00,,,0.00,520,WeatherCatV1.14B232,2013-08-24 19:47:00,
2013-08-24 15:48:00,76.8,51.9,30.26,ENE,64,0.0,1.0,42,0.00,,,0.00,520,WeatherCatV1.14B232,2013-08-24 19:48:00,
2013-08-24 15:50:00,76.8,53.8,30.26,ENE,64,0.0,0.0,45,0.00,,,0.00,520,WeatherCatV1.14B232,2013-08-24 19:50:00,
2013-08-24 15:51:00,76.8,54.4,30.26,ENE,63,0.0,1.0,46,0.00,,,0.00,520,WeatherCatV1.14B232,2013-08-24 19:51:00,
2013-08-24 15:52:00,76.8,53.2,30.26,ENE,63,0.0,1.0,44,0.00,,,0.00,520,WeatherCatV1.14B232,2013-08-24 19:52:00,
2013-08-24 15:53:00,76.8,52.6,30.26,ENE,63,0.0,1.0,43,0.00,,,0.00,520,WeatherCatV1.14B232,2013-08-24 19:53:00,
2013-08-24 15:56:00,76.9,54.5,30.26,ENE,63,0.0,1.0,46,0.00,,,0.00,520,WeatherCatV1.14B232,2013-08-24 19:56:00,
2013-08-24 15:58:00,76.9,54.5,30.26,ENE,63,0.0,1.0,46,0.00,,,0.00,520,WeatherCatV1.14B232,2013-08-24 19:58:00,
2013-08-24 16:01:00,76.9,53.3,30.26,ENE,63,0.0,0.0,44,0.00,,,0.00,520,WeatherCatV1.14B232,2013-08-24 20:01:00,
2013-08-24 16:02:00,76.9,52.7,30.26,ENE,64,0.0,1.0,43,0.00,,,0.00,520,WeatherCatV1.14B232,2013-08-24 20:02:00,
2013-08-24 16:03:00,76.9,52.7,30.27,ENE,64,0.0,1.0,43,0.00,,,0.00,520,WeatherCatV1.14B232,2013-08-24 20:03:00,
2013-08-24 16:06:00,76.8,53.2,30.26,ENE,64,0.0,0.0,44,0.00,,,0.00,520,WeatherCatV1.14B232,2013-08-24 20:06:00,
2013-08-24 16:07:00,76.8,53.8,30.26,ENE,64,0.0,0.0,45,0.00,,,0.00,520,WeatherCatV1.14B232,2013-08-24 20:07:00,
2013-08-24 16:08:00,76.8,54.4,30.26,ENE,64,0.0,0.0,46,0.00,,,0.00,520,WeatherCatV1.14B232,2013-08-24 20:08:00,
2013-08-24 16:11:00,76.5,52.9,30.26,ENE,64,1.0,2.0,44,0.00,,,0.00,520,WeatherCatV1.14B232,2013-08-24 20:11:00,
2013-08-24 16:12:00,76.3,52.8,30.26,ENE,64,1.0,1.0,44,0.00,,,0.00,520,WeatherCatV1.14B232,2013-08-24 20:12:00,
2013-08-24 16:13:00,76.2,52.0,30.26,ENE,64,0.0,1.0,43,0.00,,,0.00,520,WeatherCatV1.14B232,2013-08-24 20:13:00,
2013-08-24 16:14:00,76.1,53.2,30.26,ENE,64,2.0,2.0,45,0.00,,,0.00,520,WeatherCatV1.14B232,2013-08-24 20:14:00,
2013-08-24 16:16:00,76.0,53.1,30.26,ENE,64,0.0,2.0,45,0.00,,,0.00,520,WeatherCatV1.14B232,2013-08-24 20:16:00,
2013-08-24 16:17:00,75.9,53.0,30.26,ENE,64,0.0,1.0,45,0.00,,,0.00,520,WeatherCatV1.14B232,2013-08-24 20:17:00,
2013-08-24 16:18:00,76.0,53.7,30.26,ENE,64,0.0,1.0,46,0.00,,,0.00,520,WeatherCatV1.14B232,2013-08-24 20:18:00,
2013-08-24 16:19:00,75.9,53.6,30.26,ENE,64,2.0,2.0,46,0.00,,,0.00,520,WeatherCatV1.14B232,2013-08-24 20:19:00,
2013-08-24 16:21:00,75.8,53.5,30.26,ENE,64,1.0,3.0,46,0.00,,,0.00,520,WeatherCatV1.14B232,2013-08-24 20:21:00,
2013-08-24 16:22:00,75.8,53.5,30.26,ENE,64,1.0,3.0,46,0.00,,,0.00,520,WeatherCatV1.14B232,2013-08-24 20:22:00,
2013-08-24 16:23:00,75.8,53.5,30.26,ENE,64,0.0,3.0,46,0.00,,,0.00,520,WeatherCatV1.14B232,2013-08-24 20:23:00,
2013-08-24 16:24:00,75.8,52.9,30.26,ENE,64,1.0,3.0,45,0.00,,,0.00,520,WeatherCatV1.14B232,2013-08-24 20:24:00,
2013-08-24 16:26:00,75.8,53.5,30.26,ENE,64,1.0,2.0,46,0.00,,,0.00,520,WeatherCatV1.14B232,2013-08-24 20:26:00,
2013-08-24 16:27:00,75.8,53.5,30.26,ENE,64,0.0,2.0,46,0.00,,,0.00,520,WeatherCatV1.14B232,2013-08-24 20:27:00,
2013-08-24 16:28:00,75.9,54.2,30.26,ENE,64,0.0,1.0,47,0.00,,,0.00,520,WeatherCatV1.14B232,2013-08-24 20:28:00,
2013-08-24 16:29:00,75.9,54.8,30.26,ENE,64,0.0,1.0,48,0.00,,,0.00,520,WeatherCatV1.14B232,2013-08-24 20:29:00,
2013-08-24 16:32:00,75.9,53.6,30.26,ENE,64,3.0,3.0,46,0.00,,,0.00,520,WeatherCatV1.14B232,2013-08-24 20:32:00,
2013-08-24 16:33:00,75.9,53.6,30.26,ENE,64,0.0,3.0,46,0.00,,,0.00,520,WeatherCatV1.14B232,2013-08-24 20:33:00,
2013-08-24 16:34:00,75.9,53.6,30.26,ENE,64,1.0,2.0,46,0.00,,,0.00,520,WeatherCatV1.14B232,2013-08-24 20:34:00,
2013-08-24 16:37:00,75.9,53.0,30.26,ENE,64,1.0,2.0,45,0.00,,,0.00,520,WeatherCatV1.14B232,2013-08-24 20:37:00,
2013-08-24 16:38:00,75.9,53.6,30.26,ENE,63,1.0,2.0,46,0.00,,,0.00,520,WeatherCatV1.14B232,2013-08-24 20:38:00,
2013-08-24 16:39:00,75.9,53.6,30.26,ENE,64,0.0,2.0,46,0.00,,,0.00,520,WeatherCatV1.14B232,2013-08-24 20:39:00,
2013-08-24 16:40:00,75.9,53.0,30.26,ENE,64,0.0,1.0,45,0.00,,,0.00,520,WeatherCatV1.14B232,2013-08-24 20:40:00,
2013-08-24 16:42:00,75.9,53.6,30.26,ENE,64,2.0,2.0,46,0.00,,,0.00,520,WeatherCatV1.14B232,2013-08-24 20:42:00,
2013-08-24 16:44:00,75.9,53.6,30.26,ENE,64,0.0,2.0,46,0.00,,,0.00,520,WeatherCatV1.14B232,2013-08-24 20:44:00,
2013-08-24 16:45:00,75.9,54.8,30.26,ENE,64,0.0,0.0,48,0.00,,,0.00,520,WeatherCatV1.14B232,2013-08-24 20:45:00,
2013-08-24 16:47:00,75.9,53.6,30.26,ENE,64,0.0,1.0,46,0.00,,,0.00,520,WeatherCatV1.14B232,2013-08-24 20:47:00,
2013-08-24 16:48:00,75.9,53.6,30.26,ENE,64,1.0,2.0,46,0.00,,,0.00,520,WeatherCatV1.14B232,2013-08-24 20:48:00,
2013-08-24 16:49:00,75.9,53.6,30.26,ENE,64,1.0,2.0,46,0.00,,,0.00,520,WeatherCatV1.14B232,2013-08-24 20:49:00,
2013-08-24 16:50:00,75.9,53.6,30.26,ENE,64,0.0,1.0,46,0.00,,,0.00,520,WeatherCatV1.14B232,2013-08-24 20:50:00,
2013-08-24 16:53:00,75.9,54.2,30.26,ENE,64,0.0,2.0,47,0.00,,,0.00,520,WeatherCatV1.14B232,2013-08-24 20:53:00,
2013-08-24 16:54:00,75.8,54.1,30.26,ENE,64,0.0,1.0,47,0.00,,,0.00,520,WeatherCatV1.14B232,2013-08-24 20:54:00,
2013-08-24 16:55:00,75.9,54.8,30.26,ENE,64,1.0,1.0,48,0.00,,,0.00,520,WeatherCatV1.14B232,2013-08-24 20:55:00,
2013-08-24 16:58:00,75.8,53.5,30.26,ENE,64,0.0,1.0,46,0.00,,,0.00,520,WeatherCatV1.14B232,2013-08-24 20:58:00,
2013-08-24 16:59:00,75.9,53.6,30.26,ENE,64,0.0,1.0,46,0.00,,,0.00,520,WeatherCatV1.14B232,2013-08-24 20:59:00,
2013-08-24 17:00:00,75.9,53.0,30.26,ENE,64,1.0,2.0,45,0.00,,,0.00,520,WeatherCatV1.14B232,2013-08-24 21:00:00,
2013-08-24 17:03:00,75.9,53.0,30.26,ENE,64,2.0,2.0,45,0.00,,,0.00,520,WeatherCatV1.14B232,2013-08-24 21:03:00,
2013-08-24 17:05:00,75.8,53.5,30.26,ENE,64,0.0,1.0,46,0.00,,,0.00,520,WeatherCatV1.14B232,2013-08-24 21:05:00,
2013-08-24 17:08:00,75.8,54.7,30.26,ENE,64,0.0,0.0,48,0.00,,,0.00,520,WeatherCatV1.14B232,2013-08-24 21:08:00,
2013-08-24 17:10:00,75.8,54.1,30.26,ENE,64,0.0,0.0,47,0.00,,,0.00,520,WeatherCatV1.14B232,2013-08-24 21:10:00,
2013-08-24 17:13:00,75.8,54.7,30.26,ENE,64,0.0,0.0,48,0.00,,,0.00,520,WeatherCatV1.14B232,2013-08-24 21:13:00,
2013-08-24 17:15:00,75.8,54.7,30.26,ENE,64,0.0,1.0,48,0.00,,,0.00,520,WeatherCatV1.14B232,2013-08-24 21:15:00,
2013-08-24 17:16:00,75.8,54.7,30.26,ENE,64,0.0,1.0,48,0.00,,,0.00,520,WeatherCatV1.14B232,2013-08-24 21:16:00,
2013-08-24 17:18:00,75.8,54.7,30.26,ENE,63,0.0,1.0,48,0.00,,,0.00,520,WeatherCatV1.14B232,2013-08-24 21:18:00,
2013-08-24 17:20:00,75.7,53.4,30.26,ENE,64,2.0,2.0,46,0.00,,,0.00,520,WeatherCatV1.14B232,2013-08-24 21:20:00,
2013-08-24 17:21:00,75.7,52.2,30.26,ENE,64,1.0,2.0,44,0.00,,,0.00,520,WeatherCatV1.14B232,2013-08-24 21:21:00,
2013-08-24 17:23:00,75.6,53.3,30.26,ENE,64,1.0,1.0,46,0.00,,,0.00,520,WeatherCatV1.14B232,2013-08-24 21:23:00,
2013-08-24 17:24:00,75.6,53.3,30.26,ENE,64,0.0,1.0,46,0.00,,,0.00,520,WeatherCatV1.14B232,2013-08-24 21:24:00,
2013-08-24 17:25:00,75.6,52.7,30.26,ENE,64,0.0,1.0,45,0.00,,,0.00,520,WeatherCatV1.14B232,2013-08-24 21:25:00,
2013-08-24 17:26:00,75.6,52.7,30.26,ENE,64,0.0,1.0,45,0.00,,,0.00,520,WeatherCatV1.14B232,2013-08-24 21:26:00,
2013-08-24 17:29:00,75.6,53.9,30.26,ENE,64,0.0,0.0,47,0.00,,,0.00,520,WeatherCatV1.14B232,2013-08-24 21:29:00,
2013-08-24 17:30:00,75.7,54.6,30.26,ENE,64,0.0,0.0,48,0.00,,,0.00,520,WeatherCatV1.14B232,2013-08-24 21:30:00,
2013-08-24 17:31:00,75.7,54.6,30.26,ENE,64,0.0,0.0,48,0.00,,,0.00,520,WeatherCatV1.14B232,2013-08-24 21:31:00,
2013-08-24 17:34:00,75.7,53.4,30.26,ENE,64,1.0,1.0,46,0.00,,,0.00,520,WeatherCatV1.14B232,2013-08-24 21:34:00,
2013-08-24 17:35:00,75.7,53.4,30.26,ENE,64,0.0,1.0,46,0.00,,,0.00,520,WeatherCatV1.14B232,2013-08-24 21:35:00,
2013-08-24 17:36:00,75.7,53.4,30.26,ENE,64,0.0,1.0,46,0.00,,,0.00,520,WeatherCatV1.14B232,2013-08-24 21:36:00,
2013-08-24 17:39:00,75.6,55.1,30.26,ENE,64,0.0,1.0,49,0.00,,,0.00,520,WeatherCatV1.14B232,2013-08-24 21:39:00,
2013-08-24 17:40:00,75.5,53.3,30.26,ENE,64,1.0,1.0,46,0.00,,,0.00,520,WeatherCatV1.14B232,2013-08-24 21:40:00,
2013-08-24 17:41:00,75.5,53.3,30.26,ENE,64,0.0,1.0,46,0.00,,,0.00,520,WeatherCatV1.14B232,2013-08-24 21:41:00,
2013-08-24 17:42:00,75.5,53.3,30.26,ENE,64,0.0,1.0,46,0.00,,,0.00,520,WeatherCatV1.14B232,2013-08-24 21:42:00,
2013-08-24 17:44:00,75.4,54.3,30.26,ENE,64,0.0,0.0,48,0.00,,,0.00,520,WeatherCatV1.14B232,2013-08-24 21:44:00,
2013-08-24 17:45:00,75.4,53.7,30.26,ENE,64,0.0,0.0,47,0.00,,,0.00,520,WeatherCatV1.14B232,2013-08-24 21:45:00,
2013-08-24 17:46:00,75.4,53.7,30.26,ENE,64,0.0,0.0,47,0.00,,,0.00,520,WeatherCatV1.14B232,2013-08-24 21:46:00,
2013-08-24 17:47:00,75.3,54.2,30.26,ENE,64,0.0,0.0,48,0.00,,,0.00,520,WeatherCatV1.14B232,2013-08-24 21:47:00,
2013-08-24 17:49:00,75.2,53.0,30.26,ENE,64,1.0,1.0,46,0.00,,,0.00,520,WeatherCatV1.14B232,2013-08-24 21:49:00,
2013-08-24 17:50:00,75.2,53.0,30.26,ENE,64,0.0,1.0,46,0.00,,,0.00,520,WeatherCatV1.14B232,2013-08-24 21:50:00,
2013-08-24 17:51:00,75.2,53.0,30.26,ENE,64,0.0,2.0,46,0.00,,,0.00,520,WeatherCatV1.14B232,2013-08-24 21:51:00,
2013-08-24 17:52:00,75.2,53.6,30.26,ENE,64,1.0,1.0,47,0.00,,,0.00,520,WeatherCatV1.14B232,2013-08-24 21:52:00,
2013-08-24 17:55:00,75.1,54.6,30.26,ENE,64,0.0,1.0,49,0.00,,,0.00,520,WeatherCatV1.14B232,2013-08-24 21:55:00,
2013-08-24 17:56:00,75.1,54.1,30.26,ENE,64,0.0,1.0,48,0.00,,,0.00,520,WeatherCatV1.14B232,2013-08-24 21:56:00,
2013-08-24 17:57:00,75.0,54.0,30.26,ENE,64,0.0,1.0,48,0.00,,,0.00,520,WeatherCatV1.14B232,2013-08-24 21:57:00,
2013-08-24 18:00:00,75.0,55.1,30.26,ENE,64,0.0,0.0,50,0.00,,,0.00,520,WeatherCatV1.14B232,2013-08-24 22:00:00,
2013-08-24 18:01:00,75.0,54.5,30.26,ENE,64,0.0,0.0,49,0.00,,,0.00,520,WeatherCatV1.14B232,2013-08-24 22:01:00,
2013-08-24 18:03:00,75.0,54.0,30.26,ENE,64,0.0,0.0,48,0.00,,,0.00,520,WeatherCatV1.14B232,2013-08-24 22:03:00,
2013-08-24 18:05:00,74.9,53.9,30.26,ENE,64,1.0,1.0,48,0.00,,,0.00,520,WeatherCatV1.14B232,2013-08-24 22:05:00,
2013-08-24 18:06:00,74.9,53.9,30.26,ENE,64,0.0,1.0,48,0.00,,,0.00,520,WeatherCatV1.14B232,2013-08-24 22:06:00,
2013-08-24 18:08:00,74.8,54.3,30.26,ENE,64,0.0,1.0,49,0.00,,,0.00,520,WeatherCatV1.14B232,2013-08-24 22:08:00,
2013-08-24 18:10:00,74.8,54.3,30.26,ENE,64,0.0,0.0,49,0.00,,,0.00,520,WeatherCatV1.14B232,2013-08-24 22:10:00,
2013-08-24 18:11:00,74.8,55.4,30.26,ENE,63,0.0,0.0,51,0.00,,,0.00,520,WeatherCatV1.14B232,2013-08-24 22:11:00,
2013-08-24 18:13:00,74.8,54.9,30.26,ENE,64,0.0,0.0,50,0.00,,,0.00,520,WeatherCatV1.14B232,2013-08-24 22:13:00,
2013-08-24 18:15:00,74.8,54.9,30.26,ENE,63,0.0,0.0,50,0.00,,,0.00,520,WeatherCatV1.14B232,2013-08-24 22:15:00,
2013-08-24 18:16:00,74.7,54.3,30.26,ENE,64,0.0,0.0,49,0.00,,,0.00,520,WeatherCatV1.14B232,2013-08-24 22:16:00,
2013-08-24 18:18:00,74.6,54.7,30.26,ENE,64,1.0,1.0,50,0.00,,,0.00,520,WeatherCatV1.14B232,2013-08-24 22:18:00,
2013-08-24 18:20:00,74.6,54.7,30.26,ENE,64,2.0,2.0,50,0.00,,,0.00,520,WeatherCatV1.14B232,2013-08-24 22:20:00,
2013-08-24 18:21:00,74.5,54.1,30.26,ENE,63,0.0,2.0,49,0.00,,,0.00,520,WeatherCatV1.14B232,2013-08-24 22:21:00,
2013-08-24 18:23:00,74.5,54.6,30.26,ENE,64,0.0,0.0,50,0.00,,,0.00,520,WeatherCatV1.14B232,2013-08-24 22:23:00,
2013-08-24 18:26:00,74.4,55.6,30.26,ENE,64,0.0,1.0,52,0.00,,,0.00,520,WeatherCatV1.14B232,2013-08-24 22:26:00,
2013-08-24 18:27:00,74.3,56.0,30.27,ENE,63,0.0,1.0,53,0.00,,,0.00,520,WeatherCatV1.14B232,2013-08-24 22:27:00,
2013-08-24 18:29:00,74.2,56.0,30.26,ENE,63,0.0,0.0,53,0.00,,,0.00,520,WeatherCatV1.14B232,2013-08-24 22:29:00,
2013-08-24 18:31:00,74.1,56.4,30.27,ENE,64,0.0,0.0,54,0.00,,,0.00,520,WeatherCatV1.14B232,2013-08-24 22:31:00,
2013-08-24 18:32:00,74.1,56.4,30.26,ENE,64,0.0,0.0,54,0.00,,,0.00,520,WeatherCatV1.14B232,2013-08-24 22:32:00,
2013-08-24 18:34:00,74.0,56.8,30.26,ENE,63,0.0,1.0,55,0.00,,,0.00,520,WeatherCatV1.14B232,2013-08-24 22:34:00,
2013-08-24 18:36:00,73.8,56.6,30.26,ENE,63,0.0,1.0,55,0.00,,,0.00,520,WeatherCatV1.14B232,2013-08-24 22:36:00,
2013-08-24 18:37:00,73.8,56.1,30.26,ENE,64,0.0,1.0,54,0.00,,,0.00,520,WeatherCatV1.14B232,2013-08-24 22:37:00,
2013-08-24 18:39:00,73.7,56.0,30.26,ENE,64,1.0,1.0,54,0.00,,,0.00,520,WeatherCatV1.14B232,2013-08-24 22:39:00,
2013-08-24 18:41:00,73.6,55.4,30.26,ENE,64,0.0,1.0,53,0.00,,,0.00,520,WeatherCatV1.14B232,2013-08-24 22:41:00,
2013-08-24 18:42:00,73.5,55.8,30.26,ENE,63,0.0,1.0,54,0.00,,,0.00,520,WeatherCatV1.14B232,2013-08-24 22:42:00,
2013-08-24 18:44:00,73.6,55.4,30.26,ENE,63,0.0,1.0,53,0.00,,,0.00,520,WeatherCatV1.14B232,2013-08-24 22:44:00,
2013-08-24 18:46:00,73.6,55.9,30.26,ENE,64,0.0,0.0,54,0.00,,,0.00,520,WeatherCatV1.14B232,2013-08-24 22:46:00,
2013-08-24 18:47:00,73.6,56.4,30.26,ENE,64,0.0,0.0,55,0.00,,,0.00,520,WeatherCatV1.14B232,2013-08-24 22:47:00,
2013-08-24 18:48:00,73.6,56.4,30.26,ENE,64,0.0,0.0,55,0.00,,,0.00,520,WeatherCatV1.14B232,2013-08-24 22:48:00,
2013-08-24 18:49:00,73.6,56.4,30.26,ENE,64,0.0,0.0,55,0.00,,,0.00,520,WeatherCatV1.14B232,2013-08-24 22:49:00,
2013-08-24 18:51:00,73.5,56.3,30.26,ENE,64,0.0,1.0,55,0.00,,,0.00,520,WeatherCatV1.14B232,2013-08-24 22:51:00,
2013-08-24 18:52:00,73.4,56.2,30.26,ENE,64,0.0,1.0,55,0.00,,,0.00,520,WeatherCatV1.14B232,2013-08-24 22:52:00,
2013-08-24 18:53:00,73.4,56.2,30.27,ENE,64,0.0,1.0,55,0.00,,,0.00,520,WeatherCatV1.14B232,2013-08-24 22:53:00,
2013-08-24 18:55:00,73.3,56.6,30.26,ENE,64,0.0,0.0,56,0.00,,,0.00,520,WeatherCatV1.14B232,2013-08-24 22:55:00,
2013-08-24 18:57:00,73.2,57.0,30.26,ENE,64,0.0,1.0,57,0.00,,,0.00,520,WeatherCatV1.14B232,2013-08-24 22:57:00,
2013-08-24 18:58:00,73.1,56.9,30.26,ENE,64,0.0,1.0,57,0.00,,,0.00,520,WeatherCatV1.14B232,2013-08-24 22:58:00,
2013-08-24 19:00:00,72.9,57.2,30.26,ENE,64,0.0,0.0,58,0.00,,,0.00,520,WeatherCatV1.14B232,2013-08-24 23:00:00,
2013-08-24 19:02:00,72.7,56.6,30.26,ENE,64,0.0,0.0,57,0.00,,,0.00,520,WeatherCatV1.14B232,2013-08-24 23:02:00,
2013-08-24 19:03:00,72.6,56.5,30.26,ENE,64,0.0,0.0,57,0.00,,,0.00,520,WeatherCatV1.14B232,2013-08-24 23:03:00,
2013-08-24 19:04:00,72.5,56.4,30.26,ENE,64,0.0,0.0,57,0.00,,,0.00,520,WeatherCatV1.14B232,2013-08-24 23:04:00,
2013-08-24 19:05:00,72.4,56.8,30.26,ENE,64,0.0,0.0,58,0.00,,,0.00,520,WeatherCatV1.14B232,2013-08-24 23:05:00,
2013-08-24 19:07:00,72.2,55.1,30.27,ENE,64,0.0,1.0,55,0.00,,,0.00,520,WeatherCatV1.14B232,2013-08-24 23:07:00,
2013-08-24 19:08:00,72.2,55.6,30.27,ENE,64,0.0,1.0,56,0.00,,,0.00,520,WeatherCatV1.14B232,2013-08-24 23:08:00,
2013-08-24 19:09:00,72.1,55.5,30.27,ENE,64,0.0,0.0,56,0.00,,,0.00,520,WeatherCatV1.14B232,2013-08-24 23:09:00,
2013-08-24 19:11:00,72.0,55.4,30.27,ENE,64,0.0,0.0,56,0.00,,,0.00,520,WeatherCatV1.14B232,2013-08-24 23:11:00,
2013-08-24 19:12:00,71.9,55.8,30.27,ENE,64,0.0,0.0,57,0.00,,,0.00,520,WeatherCatV1.14B232,2013-08-24 23:12:00,
2013-08-24 19:13:00,71.9,55.8,30.27,ENE,63,0.0,0.0,57,0.00,,,0.00,520,WeatherCatV1.14B232,2013-08-24 23:13:00,
2013-08-24 19:14:00,71.8,55.7,30.27,ENE,64,0.0,0.0,57,0.00,,,0.00,520,WeatherCatV1.14B232,2013-08-24 23:14:00,
2013-08-24 19:16:00,71.7,55.2,30.27,ENE,63,0.0,0.0,56,0.00,,,0.00,520,WeatherCatV1.14B232,2013-08-24 23:16:00,
2013-08-24 19:17:00,71.6,55.5,30.27,ENE,64,0.0,0.0,57,0.00,,,0.00,520,WeatherCatV1.14B232,2013-08-24 23:17:00,
2013-08-24 19:18:00,71.6,55.5,30.27,ENE,64,0.0,0.0,57,0.00,,,0.00,520,WeatherCatV1.14B232,2013-08-24 23:18:00,
2013-08-24 19:19:00,71.5,55.5,30.27,ENE,64,0.0,0.0,57,0.00,,,0.00,520,WeatherCatV1.14B232,2013-08-24 23:19:00,
2013-08-24 19:21:00,71.4,55.4,30.27,ENE,64,0.0,0.0,57,0.00,,,0.00,520,WeatherCatV1.14B232,2013-08-24 23:21:00,
2013-08-24 19:22:00,71.3,55.7,30.27,ENE,64,0.0,0.0,58,0.00,,,0.00,520,WeatherCatV1.14B232,2013-08-24 23:22:00,
2013-08-24 19:23:00,71.2,55.7,30.27,ENE,64,0.0,0.0,58,0.00,,,0.00,520,WeatherCatV1.14B232,2013-08-24 23:23:00,
2013-08-24 19:24:00,71.2,55.7,30.27,ENE,64,0.0,0.0,58,0.00,,,0.00,520,WeatherCatV1.14B232,2013-08-24 23:24:00,
2013-08-24 19:26:00,71.0,55.5,30.27,ENE,64,0.0,1.0,58,0.00,,,0.00,520,WeatherCatV1.14B232,2013-08-24 23:26:00,
2013-08-24 19:27:00,70.9,55.4,30.27,ENE,64,0.0,0.0,58,0.00,,,0.00,520,WeatherCatV1.14B232,2013-08-24 23:27:00,
2013-08-24 19:28:00,70.8,55.3,30.27,ENE,63,0.0,0.0,58,0.00,,,0.00,520,WeatherCatV1.14B232,2013-08-24 23:28:00,
2013-08-24 19:29:00,70.8,55.3,30.27,ENE,63,0.0,0.0,58,0.00,,,0.00,520,WeatherCatV1.14B232,2013-08-24 23:29:00,
2013-08-24 19:31:00,70.6,55.6,30.27,ENE,64,0.0,1.0,59,0.00,,,0.00,520,WeatherCatV1.14B232,2013-08-24 23:31:00,
2013-08-24 19:32:00,70.5,55.5,30.28,ENE,63,0.0,1.0,59,0.00,,,0.00,520,WeatherCatV1.14B232,2013-08-24 23:32:00,
2013-08-24 19:33:00,70.4,55.4,30.28,ENE,64,0.0,1.0,59,0.00,,,0.00,520,WeatherCatV1.14B232,2013-08-24 23:33:00,
2013-08-24 19:34:00,70.4,55.8,30.28,ENE,63,0.0,1.0,60,0.00,,,0.00,520,WeatherCatV1.14B232,2013-08-24 23:34:00,
2013-08-24 19:36:00,70.2,56.1,30.28,ENE,64,0.0,0.0,61,0.00,,,0.00,520,WeatherCatV1.14B232,2013-08-24 23:36:00,
2013-08-24 19:38:00,70.0,55.9,30.28,ENE,64,0.0,1.0,61,0.00,,,0.00,520,WeatherCatV1.14B232,2013-08-24 23:38:00,
2013-08-24 19:39:00,69.9,55.8,30.28,ENE,64,0.0,1.0,61,0.00,,,0.00,520,WeatherCatV1.14B232,2013-08-24 23:39:00,
2013-08-24 19:40:00,69.8,56.2,30.28,ENE,64,0.0,0.0,62,0.00,,,0.00,520,WeatherCatV1.14B232,2013-08-24 23:40:00,
2013-08-24 19:41:00,69.7,56.1,30.28,ENE,64,0.0,0.0,62,0.00,,,0.00,520,WeatherCatV1.14B232,2013-08-24 23:41:00,
2013-08-24 19:43:00,69.5,55.9,30.28,ENE,64,0.0,0.0,62,0.00,,,0.00,520,WeatherCatV1.14B232,2013-08-24 23:43:00,
2013-08-24 19:44:00,69.5,55.9,30.28,ENE,63,0.0,0.0,62,0.00,,,0.00,520,WeatherCatV1.14B232,2013-08-24 23:44:00,
2013-08-24 19:45:00,69.3,55.7,30.28,ENE,64,0.0,0.0,62,0.00,,,0.00,520,WeatherCatV1.14B232,2013-08-24 23:45:00,
2013-08-24 19:46:00,69.2,55.6,30.28,ENE,64,0.0,0.0,62,0.00,,,0.00,520,WeatherCatV1.14B232,2013-08-24 23:46:00,
2013-08-24 19:48:00,69.0,55.4,30.28,ENE,63,0.0,1.0,62,0.00,,,0.00,520,WeatherCatV1.14B232,2013-08-24 23:48:00,
2013-08-24 19:49:00,68.9,55.3,30.28,ENE,64,0.0,1.0,62,0.00,,,0.00,520,WeatherCatV1.14B232,2013-08-24 23:49:00,
2013-08-24 19:50:00,68.8,55.2,30.28,ENE,64,0.0,1.0,62,0.00,,,0.00,520,WeatherCatV1.14B232,2013-08-24 23:50:00,
2013-08-24 19:51:00,68.6,55.0,30.28,ENE,64,0.0,0.0,62,0.00,,,0.00,520,WeatherCatV1.14B232,2013-08-24 23:51:00,
2013-08-24 19:53:00,68.5,55.4,30.28,ENE,63,0.0,1.0,63,0.00,,,0.00,520,WeatherCatV1.14B232,2013-08-24 23:53:00,
2013-08-24 19:54:00,68.4,55.3,30.28,ENE,64,0.0,1.0,63,0.00,,,0.00,520,WeatherCatV1.14B232,2013-08-24 23:54:00,
2013-08-24 19:55:00,68.4,55.3,30.28,ENE,63,0.0,1.0,63,0.00,,,0.00,520,WeatherCatV1.14B232,2013-08-24 23:55:00,
2013-08-24 19:57:00,68.3,55.6,30.28,ENE,64,0.0,0.0,64,0.00,,,0.00,520,WeatherCatV1.14B232,2013-08-24 23:57:00,
2013-08-24 19:58:00,68.2,55.5,30.29,ENE,64,0.0,0.0,64,0.00,,,0.00,520,WeatherCatV1.14B232,2013-08-24 23:58:00,
2013-08-24 19:59:00,68.2,55.5,30.29,ENE,64,0.0,0.0,64,0.00,,,0.00,520,WeatherCatV1.14B232,2013-08-24 23:59:00,
2013-08-24 20:00:00,68.1,55.5,30.28,ENE,64,0.0,0.0,64,0.00,,,0.00,520,WeatherCatV1.14B232,2013-08-25 00:00:00,
2013-08-24 20:02:00,68.0,55.8,30.28,ENE,64,0.0,0.0,65,0.00,,,0.00,520,WeatherCatV1.14B232,2013-08-25 00:02:00,
2013-08-24 20:04:00,67.9,56.1,30.29,ENE,63,0.0,0.0,66,0.00,,,0.00,520,WeatherCatV1.14B232,2013-08-25 00:04:00,
2013-08-24 20:05:00,67.9,56.1,30.29,ENE,63,0.0,0.0,66,0.00,,,0.00,520,WeatherCatV1.14B232,2013-08-25 00:05:00,
2013-08-24 20:07:00,67.9,56.1,30.29,ENE,64,0.0,1.0,66,0.00,,,0.00,520,WeatherCatV1.14B232,2013-08-25 00:07:00,
2013-08-24 20:09:00,67.8,56.4,30.29,ENE,64,0.0,0.0,67,0.00,,,0.00,520,WeatherCatV1.14B232,2013-08-25 00:09:00,
2013-08-24 20:10:00,67.8,56.4,30.29,ENE,63,0.0,0.0,67,0.00,,,0.00,520,WeatherCatV1.14B232,2013-08-25 00:10:00,
2013-08-24 20:12:00,67.7,56.7,30.29,ENE,64,0.0,0.0,68,0.00,,,0.00,520,WeatherCatV1.14B232,2013-08-25 00:12:00,
2013-08-24 20:14:00,67.6,57.1,30.29,ENE,63,0.0,0.0,69,0.00,,,0.00,520,WeatherCatV1.14B232,2013-08-25 00:14:00,
2013-08-24 20:15:00,67.6,57.1,30.29,ENE,64,0.0,0.0,69,0.00,,,0.00,520,WeatherCatV1.14B232,2013-08-25 00:15:00,
2013-08-24 20:17:00,67.5,57.4,30.29,ENE,64,0.0,0.0,70,0.00,,,0.00,520,WeatherCatV1.14B232,2013-08-25 00:17:00,
2013-08-24 20:20:00,67.4,57.3,30.29,ENE,64,0.0,0.0,70,0.00,,,0.00,520,WeatherCatV1.14B232,2013-08-25 00:20:00,
2013-08-24 20:21:00,67.3,57.2,30.29,ENE,63,0.0,0.0,70,0.00,,,0.00,520,WeatherCatV1.14B232,2013-08-25 00:21:00,
2013-08-24 20:22:00,67.3,57.6,30.29,ENE,64,0.0,0.0,71,0.00,,,0.00,520,WeatherCatV1.14B232,2013-08-25 00:22:00,
2013-08-24 20:25:00,67.1,57.4,30.30,ENE,64,0.0,0.0,71,0.00,,,0.00,520,WeatherCatV1.14B232,2013-08-25 00:25:00,
2013-08-24 20:26:00,67.1,57.0,30.30,ENE,64,0.0,0.0,70,0.00,,,0.00,520,WeatherCatV1.14B232,2013-08-25 00:26:00,
2013-08-24 20:28:00,66.9,57.2,30.30,ENE,64,0.0,0.0,71,0.00,,,0.00,520,WeatherCatV1.14B232,2013-08-25 00:28:00,
2013-08-24 20:30:00,66.8,57.1,30.30,ENE,63,0.0,0.0,71,0.00,,,0.00,520,WeatherCatV1.14B232,2013-08-25 00:30:00,
2013-08-24 20:31:00,66.7,57.0,30.30,ENE,63,0.0,0.0,71,0.00,,,0.00,520,WeatherCatV1.14B232,2013-08-25 00:31:00,
2013-08-24 20:33:00,66.6,56.9,30.30,ENE,63,0.0,0.0,71,0.00,,,0.00,520,WeatherCatV1.14B232,2013-08-25 00:33:00,
2013-08-24 20:35:00,66.5,57.2,30.30,ENE,63,0.0,0.0,72,0.00,,,0.00,520,WeatherCatV1.14B232,2013-08-25 00:35:00,
2013-08-24 20:36:00,66.4,57.1,30.30,ENE,63,0.0,0.0,72,0.00,,,0.00,520,WeatherCatV1.14B232,2013-08-25 00:36:00,
2013-08-24 20:38:00,66.3,57.0,30.30,ENE,64,0.0,0.0,72,0.00,,,0.00,520,WeatherCatV1.14B232,2013-08-25 00:38:00,
2013-08-24 20:41:00,66.2,57.3,30.30,ENE,64,0.0,0.0,73,0.00,,,0.00,520,WeatherCatV1.14B232,2013-08-25 00:41:00,
2013-08-24 20:43:00,66.0,57.1,30.30,ENE,64,0.0,0.0,73,0.00,,,0.00,520,WeatherCatV1.14B232,2013-08-25 00:43:00,
2013-08-24 20:46:00,65.9,57.4,30.30,ENE,64,0.0,0.0,74,0.00,,,0.00,520,WeatherCatV1.14B232,2013-08-25 00:46:00,
2013-08-24 20:47:00,65.8,57.3,30.30,ENE,63,0.0,0.0,74,0.00,,,0.00,520,WeatherCatV1.14B232,2013-08-25 00:47:00,
2013-08-24 20:48:00,65.8,57.3,30.30,ENE,63,0.0,0.0,74,0.00,,,0.00,520,WeatherCatV1.14B232,2013-08-25 00:48:00,
2013-08-24 20:51:00,65.6,57.1,30.30,ENE,63,0.0,0.0,74,0.00,,,0.00,520,WeatherCatV1.14B232,2013-08-25 00:51:00,
2013-08-24 20:52:00,65.6,57.1,30.30,ENE,64,0.0,0.0,74,0.00,,,0.00,520,WeatherCatV1.14B232,2013-08-25 00:52:00,
2013-08-24 20:53:00,65.6,57.1,30.31,ENE,64,0.0,0.0,74,0.00,,,0.00,520,WeatherCatV1.14B232,2013-08-25 00:53:00,
2013-08-24 20:56:00,65.4,56.9,30.31,ENE,64,0.0,0.0,74,0.00,,,0.00,520,WeatherCatV1.14B232,2013-08-25 00:56:00,
2013-08-24 20:57:00,65.4,57.3,30.31,ENE,64,0.0,0.0,75,0.00,,,0.00,520,WeatherCatV1.14B232,2013-08-25 00:57:00,
2013-08-24 20:59:00,65.3,57.2,30.31,ENE,63,0.0,0.0,75,0.00,,,0.00,520,WeatherCatV1.14B232,2013-08-25 00:59:00,
2013-08-24 21:01:00,65.2,57.1,30.31,ENE,64,0.0,0.0,75,0.00,,,0.00,520,WeatherCatV1.14B232,2013-08-25 01:01:00,
2013-08-24 21:02:00,65.2,57.1,30.31,ENE,64,0.0,0.0,75,0.00,,,0.00,520,WeatherCatV1.14B232,2013-08-25 01:02:00,
2013-08-24 21:04:00,65.2,57.1,30.31,ENE,64,0.0,0.0,75,0.00,,,0.00,520,WeatherCatV1.14B232,2013-08-25 01:04:00,
2013-08-24 21:06:00,65.1,57.3,30.31,ENE,64,0.0,0.0,76,0.00,,,0.00,520,WeatherCatV1.14B232,2013-08-25 01:06:00,
2013-08-24 21:07:00,65.0,57.2,30.31,ENE,64,0.0,0.0,76,0.00,,,0.00,520,WeatherCatV1.14B232,2013-08-25 01:07:00,
2013-08-24 21:08:00,65.0,57.2,30.31,ENE,64,0.0,0.0,76,0.00,,,0.00,520,WeatherCatV1.14B232,2013-08-25 01:08:00,
2013-08-24 21:09:00,65.0,57.2,30.31,ENE,64,0.0,0.0,76,0.00,,,0.00,520,WeatherCatV1.14B232,2013-08-25 01:09:00,
2013-08-24 21:11:00,64.9,57.1,30.31,ENE,64,0.0,0.0,76,0.00,,,0.00,520,WeatherCatV1.14B232,2013-08-25 01:11:00,
2013-08-24 21:12:00,64.9,57.1,30.31,ENE,64,0.0,0.0,76,0.00,,,0.00,520,WeatherCatV1.14B232,2013-08-25 01:12:00,
2013-08-24 21:13:00,64.8,57.0,30.31,ENE,63,0.0,0.0,76,0.00,,,0.00,520,WeatherCatV1.14B232,2013-08-25 01:13:00,
2013-08-24 21:14:00,64.8,57.0,30.31,ENE,63,0.0,0.0,76,0.00,,,0.00,520,WeatherCatV1.14B232,2013-08-25 01:14:00,
2013-08-24 21:17:00,64.7,57.3,30.31,ENE,64,0.0,0.0,77,0.00,,,0.00,520,WeatherCatV1.14B232,2013-08-25 01:17:00,
2013-08-24 21:18:00,64.7,57.3,30.31,ENE,63,0.0,0.0,77,0.00,,,0.00,520,WeatherCatV1.14B232,2013-08-25 01:18:00,
2013-08-24 21:20:00,64.6,57.2,30.31,ENE,64,0.0,0.0,77,0.00,,,0.00,520,WeatherCatV1.14B232,2013-08-25 01:20:00,
2013-08-24 21:22:00,64.5,57.1,30.31,ENE,64,0.0,0.0,77,0.00,,,0.00,520,WeatherCatV1.14B232,2013-08-25 01:22:00,
2013-08-24 21:23:00,64.5,57.1,30.31,ENE,64,0.0,0.0,77,0.00,,,0.00,520,WeatherCatV1.14B232,2013-08-25 01:23:00,
2013-08-24 21:25:00,64.4,57.0,30.31,ENE,64,0.0,0.0,77,0.00,,,0.00,520,WeatherCatV1.14B232,2013-08-25 01:25:00,
2013-08-24 21:27:00,64.3,56.9,30.31,ENE,64,0.0,0.0,77,0.00,,,0.00,520,WeatherCatV1.14B232,2013-08-25 01:27:00,
2013-08-24 21:28:00,64.2,57.2,30.31,ENE,63,0.0,0.0,78,0.00,,,0.00,520,WeatherCatV1.14B232,2013-08-25 01:28:00,
2013-08-24 21:30:00,64.1,57.1,30.31,ENE,63,0.0,0.0,78,0.00,,,0.00,520,WeatherCatV1.14B232,2013-08-25 01:30:00,
2013-08-24 21:32:00,64.0,57.0,30.31,ENE,64,0.0,0.0,78,0.00,,,0.00,520,WeatherCatV1.14B232,2013-08-25 01:32:00,
2013-08-24 21:33:00,63.9,56.9,30.31,ENE,63,0.0,0.0,78,0.00,,,0.00,520,WeatherCatV1.14B232,2013-08-25 01:33:00,
2013-08-24 21:34:00,63.9,57.3,30.31,ENE,64,0.0,0.0,79,0.00,,,0.00,520,WeatherCatV1.14B232,2013-08-25 01:34:00,
2013-08-24 21:35:00,63.8,57.2,30.31,ENE,64,0.0,0.0,79,0.00,,,0.00,520,WeatherCatV1.14B232,2013-08-25 01:35:00,
2013-08-24 21:37:00,63.7,57.1,30.31,ENE,63,0.0,0.0,79,0.00,,,0.00,520,WeatherCatV1.14B232,2013-08-25 01:37:00,
2013-08-24 21:38:00,63.7,57.1,30.32,ENE,64,0.0,0.0,79,0.00,,,0.00,520,WeatherCatV1.14B232,2013-08-25 01:38:00,
2013-08-24 21:39:00,63.6,57.0,30.32,ENE,64,0.0,0.0,79,0.00,,,0.00,520,WeatherCatV1.14B232,2013-08-25 01:39:00,
2013-08-24 21:40:00,63.6,57.3,30.31,ENE,63,0.0,0.0,80,0.00,,,0.00,520,WeatherCatV1.14B232,2013-08-25 01:40:00,
2013-08-24 21:42:00,63.5,57.2,30.31,ENE,64,0.0,0.0,80,0.00,,,0.00,520,WeatherCatV1.14B232,2013-08-25 01:42:00,
2013-08-24 21:43:00,63.4,57.1,30.32,ENE,64,0.0,0.0,80,0.00,,,0.00,520,WeatherCatV1.14B232,2013-08-25 01:43:00,
2013-08-24 21:44:00,63.4,57.1,30.32,ENE,63,0.0,0.0,80,0.00,,,0.00,520,WeatherCatV1.14B232,2013-08-25 01:44:00,
2013-08-24 21:45:00,63.3,57.0,30.32,ENE,64,0.0,0.0,80,0.00,,,0.00,520,WeatherCatV1.14B232,2013-08-25 01:45:00,
2013-08-24 21:48:00,63.2,56.9,30.32,ENE,63,0.0,0.0,80,0.00,,,0.00,520,WeatherCatV1.14B232,2013-08-25 01:48:00,
2013-08-24 21:49:00,63.2,56.9,30.32,ENE,63,0.0,0.0,80,0.00,,,0.00,520,WeatherCatV1.14B232,2013-08-25 01:49:00,
2013-08-24 21:50:00,63.2,56.9,30.32,ENE,64,0.0,0.0,80,0.00,,,0.00,520,WeatherCatV1.14B232,2013-08-25 01:50:00,
2013-08-24 21:51:00,63.1,57.2,30.32,ENE,63,0.0,0.0,81,0.00,,,0.00,520,WeatherCatV1.14B232,2013-08-25 01:51:00,
2013-08-24 21:53:00,63.0,57.1,30.32,ENE,63,0.0,0.0,81,0.00,,,0.00,520,WeatherCatV1.14B232,2013-08-25 01:53:00,
2013-08-24 21:54:00,62.9,57.0,30.32,ENE,64,0.0,0.0,81,0.00,,,0.00,520,WeatherCatV1.14B232,2013-08-25 01:54:00,
2013-08-24 21:55:00,62.9,57.0,30.32,ENE,64,0.0,0.0,81,0.00,,,0.00,520,WeatherCatV1.14B232,2013-08-25 01:55:00,
2013-08-24 21:56:00,62.9,57.0,30.32,ENE,63,0.0,0.0,81,0.00,,,0.00,520,WeatherCatV1.14B232,2013-08-25 01:56:00,
2013-08-24 21:58:00,62.8,56.9,30.32,ENE,63,0.0,0.0,81,0.00,,,0.00,520,WeatherCatV1.14B232,2013-08-25 01:58:00,
2013-08-24 21:59:00,62.7,56.8,30.32,ENE,64,0.0,0.0,81,0.00,,,0.00,520,WeatherCatV1.14B232,2013-08-25 01:59:00,
2013-08-24 22:00:00,62.7,56.8,30.32,ENE,64,0.0,0.0,81,0.00,,,0.00,520,WeatherCatV1.14B232,2013-08-25 02:00:00,
2013-08-24 22:01:00,62.6,56.7,30.32,ENE,64,0.0,0.0,81,0.00,,,0.00,520,WeatherCatV1.14B232,2013-08-25 02:01:00,
2013-08-24 22:03:00,62.5,56.9,30.32,ENE,64,0.0,0.0,82,0.00,,,0.00,520,WeatherCatV1.14B232,2013-08-25 02:03:00,
2013-08-24 22:04:00,62.4,56.8,30.32,ENE,64,0.0,0.0,82,0.00,,,0.00,520,WeatherCatV1.14B232,2013-08-25 02:04:00,
2013-08-24 22:05:00,62.4,56.8,30.32,ENE,63,0.0,0.0,82,0.00,,,0.00,520,WeatherCatV1.14B232,2013-08-25 02:05:00,
2013-08-24 22:06:00,62.4,56.8,30.32,ENE,64,0.0,0.0,82,0.00,,,0.00,520,WeatherCatV1.14B232,2013-08-25 02:06:00,
2013-08-24 22:08:00,62.2,56.6,30.32,ENE,63,0.0,0.0,82,0.00,,,0.00,520,WeatherCatV1.14B232,2013-08-25 02:08:00,
2013-08-24 22:09:00,62.2,56.6,30.32,ENE,63,0.0,0.0,82,0.00,,,0.00,520,WeatherCatV1.14B232,2013-08-25 02:09:00,
2013-08-24 22:10:00,62.1,56.5,30.32,ENE,63,0.0,0.0,82,0.00,,,0.00,520,WeatherCatV1.14B232,2013-08-25 02:10:00,
2013-08-24 22:11:00,62.1,56.5,30.32,ENE,63,0.0,0.0,82,0.00,,,0.00,520,WeatherCatV1.14B232,2013-08-25 02:11:00,
2013-08-24 22:14:00,62.0,56.4,30.32,ENE,63,0.0,0.0,82,0.00,,,0.00,520,WeatherCatV1.14B232,2013-08-25 02:14:00,
2013-08-24 22:15:00,62.0,56.4,30.32,ENE,64,0.0,0.0,82,0.00,,,0.00,520,WeatherCatV1.14B232,2013-08-25 02:15:00,
2013-08-24 22:16:00,61.9,56.3,30.32,ENE,64,0.0,0.0,82,0.00,,,0.00,520,WeatherCatV1.14B232,2013-08-25 02:16:00,
2013-08-24 22:19:00,61.8,56.2,30.32,ENE,64,0.0,0.0,82,0.00,,,0.00,520,WeatherCatV1.14B232,2013-08-25 02:19:00,
2013-08-24 22:20:00,61.8,56.2,30.32,ENE,63,0.0,0.0,82,0.00,,,0.00,520,WeatherCatV1.14B232,2013-08-25 02:20:00,
2013-08-24 22:22:00,61.8,56.2,30.32,ENE,63,0.0,0.0,82,0.00,,,0.00,520,WeatherCatV1.14B232,2013-08-25 02:22:00,
2013-08-24 22:24:00,61.7,56.5,30.32,ENE,63,0.0,0.0,83,0.00,,,0.00,520,WeatherCatV1.14B232,2013-08-25 02:24:00,
2013-08-24 22:25:00,61.7,56.5,30.32,ENE,64,0.0,0.0,83,0.00,,,0.00,520,WeatherCatV1.14B232,2013-08-25 02:25:00,
2013-08-24 22:27:00,61.7,56.5,30.32,ENE,63,0.0,0.0,83,0.00,,,0.00,520,WeatherCatV1.14B232,2013-08-25 02:27:00,
2013-08-24 22:29:00,61.6,56.4,30.32,ENE,63,0.0,0.0,83,0.00,,,0.00,520,WeatherCatV1.14B232,2013-08-25 02:29:00,
2013-08-24 22:30:00,61.6,56.4,30.32,ENE,63,0.0,0.0,83,0.00,,,0.00,520,WeatherCatV1.14B232,2013-08-25 02:30:00,
2013-08-24 22:32:00,61.5,56.3,30.32,ENE,64,0.0,0.0,83,0.00,,,0.00,520,WeatherCatV1.14B232,2013-08-25 02:32:00,
2013-08-24 22:34:00,61.4,56.2,30.32,ENE,63,0.0,0.0,83,0.00,,,0.00,520,WeatherCatV1.14B232,2013-08-25 02:34:00,
2013-08-24 22:35:00,61.4,56.2,30.32,ENE,63,0.0,0.0,83,0.00,,,0.00,520,WeatherCatV1.14B232,2013-08-25 02:35:00,
2013-08-24 22:37:00,61.3,56.4,30.32,ENE,63,0.0,0.0,84,0.00,,,0.00,520,WeatherCatV1.14B232,2013-08-25 02:37:00,
2013-08-24 22:40:00,61.2,56.3,30.32,ENE,63,0.0,0.0,84,0.00,,,0.00,520,WeatherCatV1.14B232,2013-08-25 02:40:00,
2013-08-24 22:41:00,61.1,56.2,30.32,ENE,64,0.0,0.0,84,0.00,,,0.00,520,WeatherCatV1.14B232,2013-08-25 02:41:00,
2013-08-24 22:42:00,61.1,56.2,30.32,ENE,64,0.0,0.0,84,0.00,,,0.00,520,WeatherCatV1.14B232,2013-08-25 02:42:00,
2013-08-24 22:45:00,61.0,56.5,30.32,ENE,63,0.0,0.0,85,0.00,,,0.00,520,WeatherCatV1.14B232,2013-08-25 02:45:00,
2013-08-24 22:46:00,60.9,56.4,30.32,ENE,64,0.0,0.0,85,0.00,,,0.00,520,WeatherCatV1.14B232,2013-08-25 02:46:00,
2013-08-24 22:47:00,60.9,56.4,30.32,ENE,63,0.0,1.0,85,0.00,,,0.00,520,WeatherCatV1.14B232,2013-08-25 02:47:00,
2013-08-24 22:50:00,60.7,56.2,30.32,ENE,64,0.0,0.0,85,0.00,,,0.00,520,WeatherCatV1.14B232,2013-08-25 02:50:00,
2013-08-24 22:51:00,60.7,56.2,30.32,ENE,64,0.0,0.0,85,0.00,,,0.00,520,WeatherCatV1.14B232,2013-08-25 02:51:00,
2013-08-24 22:52:00,60.7,56.2,30.32,ENE,64,0.0,0.0,85,0.00,,,0.00,520,WeatherCatV1.14B232,2013-08-25 02:52:00,
2013-08-24 22:55:00,60.5,56.3,30.32,ENE,64,0.0,1.0,86,0.00,,,0.00,520,WeatherCatV1.14B232,2013-08-25 02:55:00,
2013-08-24 22:56:00,60.5,56.3,30.32,ENE,64,1.0,1.0,86,0.00,,,0.00,520,WeatherCatV1.14B232,2013-08-25 02:56:00,
2013-08-24 22:57:00,60.5,56.6,30.32,ENE,63,0.0,1.0,87,0.00,,,0.00,520,WeatherCatV1.14B232,2013-08-25 02:57:00,
2013-08-24 23:00:00,60.3,56.4,30.32,ENE,64,0.0,1.0,87,0.00,,,0.00,520,WeatherCatV1.14B232,2013-08-25 03:00:00,
2013-08-24 23:01:00,60.3,56.4,30.32,ENE,64,0.0,0.0,87,0.00,,,0.00,520,WeatherCatV1.14B232,2013-08-25 03:01:00,
2013-08-24 23:02:00,60.3,56.4,30.32,ENE,63,0.0,0.0,87,0.00,,,0.00,520,WeatherCatV1.14B232,2013-08-25 03:02:00,
2013-08-24 23:05:00,60.2,56.3,30.32,ENE,63,0.0,0.0,87,0.00,,,0.00,520,WeatherCatV1.14B232,2013-08-25 03:05:00,
2013-08-24 23:06:00,60.2,56.3,30.32,ENE,64,0.0,0.0,87,0.00,,,0.00,520,WeatherCatV1.14B232,2013-08-25 03:06:00,
2013-08-24 23:07:00,60.1,56.2,30.32,ENE,64,0.0,0.0,87,0.00,,,0.00,520,WeatherCatV1.14B232,2013-08-25 03:07:00,
2013-08-24 23:08:00,60.1,56.2,30.32,ENE,64,0.0,0.0,87,0.00,,,0.00,520,WeatherCatV1.14B232,2013-08-25 03:08:00,
2013-08-24 23:10:00,60.0,56.1,30.32,ENE,63,0.0,0.0,87,0.00,,,0.00,520,WeatherCatV1.14B232,2013-08-25 03:10:00,
2013-08-24 23:11:00,60.0,56.4,30.32,ENE,64,0.0,0.0,88,0.00,,,0.00,520,WeatherCatV1.14B232,2013-08-25 03:11:00,
2013-08-24 23:12:00,60.0,56.4,30.32,ENE,63,0.0,0.0,88,0.00,,,0.00,520,WeatherCatV1.14B232,2013-08-25 03:12:00,
2013-08-24 23:13:00,60.0,56.4,30.32,ENE,63,0.0,0.0,88,0.00,,,0.00,520,WeatherCatV1.14B232,2013-08-25 03:13:00,
2013-08-24 23:16:00,59.9,56.3,30.32,ENE,64,0.0,0.0,88,0.00,,,0.00,520,WeatherCatV1.14B232,2013-08-25 03:16:00,
2013-08-24 23:17:00,59.9,56.3,30.32,ENE,63,0.0,0.0,88,0.00,,,0.00,520,WeatherCatV1.14B232,2013-08-25 03:17:00,
2013-08-24 23:18:00,59.9,56.3,30.32,ENE,64,0.0,0.0,88,0.00,,,0.00,520,WeatherCatV1.14B232,2013-08-25 03:18:00,
2013-08-24 23:21:00,59.7,56.1,30.32,ENE,63,0.0,0.0,88,0.00,,,0.00,520,WeatherCatV1.14B232,2013-08-25 03:21:00,
2013-08-24 23:23:00,59.7,56.1,30.32,ENE,64,0.0,0.0,88,0.00,,,0.00,520,WeatherCatV1.14B232,2013-08-25 03:23:00,
2013-08-24 23:26:00,59.7,56.4,30.33,ENE,63,0.0,0.0,89,0.00,,,0.00,520,WeatherCatV1.14B232,2013-08-25 03:26:00,
2013-08-24 23:27:00,59.6,56.4,30.33,ENE,63,0.0,0.0,89,0.00,,,0.00,520,WeatherCatV1.14B232,2013-08-25 03:27:00,
2013-08-24 23:28:00,59.6,56.4,30.33,ENE,63,0.0,0.0,89,0.00,,,0.00,520,WeatherCatV1.14B232,2013-08-25 03:28:00,
2013-08-24 23:31:00,59.5,56.3,30.33,ENE,63,0.0,0.0,89,0.00,,,0.00,520,WeatherCatV1.14B232,2013-08-25 03:31:00,
2013-08-24 23:32:00,59.5,56.3,30.33,ENE,64,0.0,0.0,89,0.00,,,0.00,520,WeatherCatV1.14B232,2013-08-25 03:32:00,
2013-08-24 23:33:00,59.4,56.2,30.33,ENE,64,0.0,0.0,89,0.00,,,0.00,520,WeatherCatV1.14B232,2013-08-25 03:33:00,
2013-08-24 23:36:00,59.3,56.1,30.33,ENE,63,0.0,0.0,89,0.00,,,0.00,520,WeatherCatV1.14B232,2013-08-25 03:36:00,
2013-08-24 23:37:00,59.3,56.1,30.33,ENE,63,0.0,0.0,89,0.00,,,0.00,520,WeatherCatV1.14B232,2013-08-25 03:37:00,
2013-08-24 23:38:00,59.3,56.1,30.33,ENE,64,0.0,0.0,89,0.00,,,0.00,520,WeatherCatV1.14B232,2013-08-25 03:38:00,
2013-08-24 23:42:00,59.2,56.3,30.33,ENE,63,0.0,0.0,90,0.00,,,0.00,520,WeatherCatV1.14B232,2013-08-25 03:42:00,
2013-08-24 23:43:00,59.2,56.3,30.33,ENE,63,0.0,0.0,90,0.00,,,0.00,520,WeatherCatV1.14B232,2013-08-25 03:43:00,
2013-08-24 23:47:00,59.1,56.2,30.33,ENE,63,0.0,0.0,90,0.00,,,0.00,520,WeatherCatV1.14B232,2013-08-25 03:47:00,
2013-08-24 23:48:00,59.1,56.2,30.33,ENE,64,0.0,0.0,90,0.00,,,0.00,520,WeatherCatV1.14B232,2013-08-25 03:48:00,
2013-08-24 23:49:00,59.1,56.2,30.33,ENE,63,0.0,0.0,90,0.00,,,0.00,520,WeatherCatV1.14B232,2013-08-25 03:49:00,
2013-08-24 23:52:00,59.0,56.1,30.33,ENE,63,0.0,0.0,90,0.00,,,0.00,520,WeatherCatV1.14B232,2013-08-25 03:52:00,
2013-08-24 23:53:00,59.0,56.1,30.33,ENE,63,0.0,0.0,90,0.00,,,0.00,520,WeatherCatV1.14B232,2013-08-25 03:53:00,
2013-08-24 23:54:00,59.0,56.1,30.33,ENE,63,0.0,0.0,90,0.00,,,0.00,520,WeatherCatV1.14B232,2013-08-25 03:54:00,
2013-08-24 23:57:00,58.9,56.0,30.33,ENE,63,0.0,0.0,90,0.00,,,0.00,520,WeatherCatV1.14B232,2013-08-25 03:57:00,
2013-08-24 23:58:00,58.8,55.9,30.33,ENE,64,0.0,0.0,90,0.00,,,0.00,520,WeatherCatV1.14B232,2013-08-25 03:58:00,
2013-08-24 23:59:00,58.8,55.9,30.33,ENE,64,0.0,0.0,90,0.00,,,0.00,520,WeatherCatV1.14B232,2013-08-25 03:59:00,